| time (UTC) | temp F | wind direction | speed MPH | gust MPH | rain 1hr in | rain 24hr in | rain mn in | humidity % | barometer mb |
| 20260902161910 | 87 | 265 | 7.0 | 12.0 | 0.00 | 0.02 | 0.00 | 79 | 1014.2 |
| 20260902161809 | 87 | 295 | 8.0 | 12.0 | 0.00 | 0.02 | 0.00 | 79 | 1014.2 |
| 20260902161712 | 87 | 259 | 8.0 | 13.0 | 0.00 | 0.02 | 0.00 | 79 | 1014.2 |
| 20260902161610 | 87 | 295 | 8.0 | 13.0 | 0.00 | 0.02 | 0.00 | 80 | 1014.2 |
| 20260902161511 | 87 | 319 | 8.0 | 15.0 | 0.00 | 0.02 | 0.00 | 80 | 1014.3 |
| 20260902161410 | 87 | 265 | 7.0 | 15.0 | 0.00 | 0.02 | 0.00 | 80 | 1014.2 |
| 20260902161311 | 86 | 261 | 8.0 | 16.0 | 0.00 | 0.02 | 0.00 | 80 | 1014.2 |
| 20260902161211 | 86 | 306 | 7.0 | 16.0 | 0.00 | 0.02 | 0.00 | 80 | 1014.3 |
| 20260902161109 | 86 | 265 | 7.0 | 16.0 | 0.00 | 0.02 | 0.00 | 80 | 1014.2 |
| 20260902161010 | 86 | 275 | 8.0 | 16.0 | 0.00 | 0.02 | 0.00 | 80 | 1014.2 |
| 20260902160911 | 86 | 245 | 8.0 | 16.0 | 0.00 | 0.02 | 0.00 | 80 | 1014.2 |
| 20260902160811 | 86 | 250 | 9.0 | 16.0 | 0.00 | 0.02 | 0.00 | 80 | 1014.2 |
| 20260902160711 | 86 | 290 | 10.0 | 16.0 | 0.00 | 0.02 | 0.00 | 80 | 1014.2 |
| 20260902160610 | 86 | 264 | 11.0 | 16.0 | 0.00 | 0.02 | 0.00 | 80 | 1014.3 |
| 20260902160509 | 86 | 248 | 9.0 | 16.0 | 0.00 | 0.02 | 0.00 | 80 | 1014.2 |
| 20260902160409 | 86 | 286 | 7.0 | 16.0 | 0.00 | 0.02 | 0.00 | 81 | 1014.3 |
| 20260902160310 | 86 | 243 | 6.0 | 13.0 | 0.00 | 0.02 | 0.00 | 81 | 1014.3 |
| 20260902160209 | 86 | 244 | 7.0 | 13.0 | 0.00 | 0.02 | 0.00 | 81 | 1014.2 |
| 20260902160110 | 86 | 266 | 9.0 | 13.0 | 0.00 | 0.02 | 0.00 | 81 | 1014.2 |
| 20260902160011 | 86 | 266 | 9.0 | 13.0 | 0.00 | 0.02 | 0.00 | 81 | 1014.3 |
| 20260902155910 | 86 | 266 | 9.0 | 13.0 | 0.00 | 0.02 | 0.00 | 81 | 1014.3 |
| 20260902155809 | 86 | 266 | 8.0 | 13.0 | 0.00 | 0.02 | 0.00 | 81 | 1014.2 |
| 20260902155710 | 86 | 224 | 6.0 | 13.0 | 0.00 | 0.02 | 0.00 | 81 | 1014.3 |
| 20260902155608 | 86 | 285 | 5.0 | 12.0 | 0.00 | 0.02 | 0.00 | 81 | 1014.2 |
| 20260902155509 | 86 | 281 | 7.0 | 12.0 | 0.00 | 0.02 | 0.00 | 81 | 1014.2 |
| 20260902155410 | 86 | 238 | 8.0 | 12.0 | 0.00 | 0.02 | 0.00 | 81 | 1014.3 |
| 20260902155310 | 85 | 0 | 7.0 | 12.0 | 0.00 | 0.02 | 0.00 | 82 | 1014.3 |
| 20260902155210 | 85 | 0 | 7.0 | 13.0 | 0.00 | 0.02 | 0.00 | 82 | 1014.2 |
| 20260902155110 | 85 | 0 | 7.0 | 13.0 | 0.00 | 0.02 | 0.00 | 82 | 1014.2 |
| 20260902155010 | 85 | 0 | 7.0 | 13.0 | 0.00 | 0.02 | 0.00 | 82 | 1014.1 |
| 20260902154909 | 85 | 274 | 7.0 | 13.0 | 0.00 | 0.02 | 0.00 | 82 | 1014.2 |
| 20260902154810 | 85 | 279 | 8.0 | 13.0 | 0.00 | 0.02 | 0.00 | 83 | 1014.1 |
| 20260902154710 | 85 | 274 | 8.0 | 13.0 | 0.00 | 0.02 | 0.00 | 83 | 1014.2 |
| 20260902154608 | 85 | 272 | 7.0 | 13.0 | 0.00 | 0.02 | 0.00 | 83 | 1014.2 |
| 20260902154509 | 85 | 282 | 8.0 | 13.0 | 0.00 | 0.02 | 0.00 | 83 | 1014.2 |
| 20260902154411 | 85 | 274 | 9.0 | 13.0 | 0.00 | 0.02 | 0.00 | 83 | 1014.2 |
| 20260902154309 | 85 | 317 | 9.0 | 13.0 | 0.00 | 0.02 | 0.00 | 83 | 1014.2 |
| 20260902154209 | 85 | 259 | 7.0 | 13.0 | 0.00 | 0.02 | 0.00 | 83 | 1014.1 |
| 20260902154110 | 85 | 334 | 6.0 | 13.0 | 0.00 | 0.02 | 0.00 | 83 | 1014.2 |
| 20260902154010 | 85 | 298 | 9.0 | 13.0 | 0.00 | 0.02 | 0.00 | 83 | 1014.2 |
| 20260902153909 | 85 | 298 | 9.0 | 13.0 | 0.00 | 0.02 | 0.00 | 83 | 1014.1 |
| 20260902153810 | 85 | 298 | 9.0 | 13.0 | 0.00 | 0.02 | 0.00 | 83 | 1014.2 |
| 20260902153710 | 85 | 298 | 9.0 | 13.0 | 0.00 | 0.02 | 0.00 | 83 | 1014.1 |
| 20260902153613 | 85 | 288 | 8.0 | 13.0 | 0.00 | 0.02 | 0.00 | 83 | 1014.2 |
| 20260902153508 | 85 | 319 | 8.0 | 12.0 | 0.00 | 0.02 | 0.00 | 83 | 1014.1 |
| 20260902153409 | 85 | 262 | 9.0 | 12.0 | 0.00 | 0.02 | 0.00 | 83 | 1014.1 |
| 20260902153310 | 85 | 276 | 7.0 | 12.0 | 0.00 | 0.02 | 0.00 | 84 | 1014.2 |
| 20260902153210 | 85 | 276 | 7.0 | 12.0 | 0.00 | 0.02 | 0.00 | 84 | 1014.0 |
| 20260902153109 | 85 | 276 | 7.0 | 12.0 | 0.00 | 0.02 | 0.00 | 84 | 1014.1 |
| 20260902153010 | 85 | 264 | 7.0 | 12.0 | 0.00 | 0.02 | 0.00 | 84 | 1014.1 |
| 20260902152909 | 85 | 283 | 8.0 | 12.0 | 0.00 | 0.02 | 0.00 | 84 | 1014.1 |
| 20260902152808 | 85 | 257 | 8.0 | 12.0 | 0.00 | 0.02 | 0.00 | 84 | 1014.1 |
| 20260902152710 | 85 | 283 | 8.0 | 12.0 | 0.00 | 0.02 | 0.00 | 84 | 1014.1 |
| 20260902152608 | 85 | 245 | 8.0 | 12.0 | 0.00 | 0.02 | 0.00 | 84 | 1014.0 |
| 20260902152511 | 85 | 292 | 9.0 | 12.0 | 0.00 | 0.02 | 0.00 | 84 | 1014.1 |
| 20260902152409 | 85 | 279 | 4.0 | 12.0 | 0.00 | 0.02 | 0.00 | 84 | 1014.1 |
| 20260902152311 | 85 | 279 | 4.0 | 12.0 | 0.00 | 0.02 | 0.00 | 84 | 1014.0 |
| 20260902152209 | 85 | 279 | 4.0 | 12.0 | 0.00 | 0.02 | 0.00 | 84 | 1014.0 |
| 20260902152110 | 85 | 257 | 5.0 | 12.0 | 0.00 | 0.02 | 0.00 | 84 | 1013.9 |
| 20260902152009 | 85 | 282 | 6.0 | 12.0 | 0.00 | 0.02 | 0.00 | 84 | 1013.9 |
| 20260902151908 | 85 | 276 | 8.0 | 13.0 | 0.00 | 0.02 | 0.00 | 84 | 1014.0 |
| 20260902151810 | 85 | 285 | 7.0 | 13.0 | 0.00 | 0.02 | 0.00 | 84 | 1014.0 |
| 20260902151710 | 85 | 259 | 4.0 | 13.0 | 0.00 | 0.02 | 0.00 | 85 | 1013.9 |
| 20260902151610 | 84 | 251 | 6.0 | 13.0 | 0.00 | 0.02 | 0.00 | 85 | 1013.9 |
| 20260902151509 | 84 | 251 | 6.0 | 13.0 | 0.00 | 0.02 | 0.00 | 85 | 1013.9 |
| 20260902151411 | 84 | 251 | 6.0 | 13.0 | 0.00 | 0.02 | 0.00 | 85 | 1013.9 |
| 20260902151310 | 84 | 250 | 7.0 | 13.0 | 0.00 | 0.02 | 0.00 | 85 | 1014.0 |
| 20260902151209 | 84 | 257 | 8.0 | 13.0 | 0.00 | 0.02 | 0.00 | 85 | 1013.9 |
| 20260902151108 | 84 | 266 | 8.0 | 13.0 | 0.00 | 0.02 | 0.00 | 85 | 1013.9 |
| 20260902151008 | 84 | 212 | 7.0 | 13.0 | 0.00 | 0.02 | 0.00 | 85 | 1014.0 |
| 20260902150910 | 84 | 299 | 7.0 | 13.0 | 0.00 | 0.02 | 0.00 | 85 | 1013.9 |
| 20260902150809 | 84 | 279 | 8.0 | 13.0 | 0.00 | 0.02 | 0.00 | 85 | 1014.0 |
| 20260902150709 | 84 | 283 | 9.0 | 13.0 | 0.00 | 0.02 | 0.00 | 85 | 1013.9 |
| 20260902150608 | 84 | 286 | 7.0 | 11.0 | 0.00 | 0.02 | 0.00 | 85 | 1014.0 |
| 20260902150508 | 84 | 310 | 5.0 | 12.0 | 0.00 | 0.02 | 0.00 | 86 | 1013.9 |
| 20260902150409 | 84 | 327 | 4.0 | 13.0 | 0.00 | 0.02 | 0.00 | 86 | 1013.9 |
| 20260902150309 | 84 | 0 | 5.0 | 13.0 | 0.00 | 0.02 | 0.00 | 86 | 1013.9 |
| 20260902150210 | 84 | 0 | 5.0 | 13.0 | 0.00 | 0.02 | 0.00 | 86 | 1014.0 |
| 20260902150109 | 84 | 0 | 5.0 | 14.0 | 0.00 | 0.02 | 0.00 | 86 | 1014.0 |
| 20260902150009 | 84 | 0 | 5.0 | 14.0 | 0.00 | 0.02 | 0.00 | 86 | 1013.9 |
| 20260902145910 | 84 | 0 | 5.0 | 14.0 | 0.00 | 0.02 | 0.00 | 86 | 1014.0 |
| 20260902145807 | 84 | 0 | 5.0 | 14.0 | 0.00 | 0.02 | 0.00 | 86 | 1014.0 |
| 20260902145707 | 84 | 0 | 6.0 | 14.0 | 0.00 | 0.02 | 0.00 | 86 | 1013.9 |
| 20260902145608 | 84 | 0 | 9.0 | 14.0 | 0.00 | 0.02 | 0.00 | 86 | 1013.9 |
| 20260902145509 | 84 | 0 | 10.0 | 14.0 | 0.00 | 0.02 | 0.00 | 86 | 1013.9 |
| 20260902145408 | 84 | 0 | 7.0 | 14.0 | 0.00 | 0.02 | 0.00 | 86 | 1013.9 |
| 20260902145308 | 84 | 0 | 7.0 | 14.0 | 0.00 | 0.02 | 0.00 | 86 | 1013.9 |
| 20260902145208 | 84 | 0 | 8.0 | 14.0 | 0.00 | 0.02 | 0.00 | 86 | 1013.9 |
| 20260902145108 | 84 | 0 | 7.0 | 11.0 | 0.00 | 0.02 | 0.00 | 86 | 1013.9 |
| 20260902145009 | 84 | 0 | 7.0 | 11.0 | 0.00 | 0.02 | 0.00 | 86 | 1014.0 |
| 20260902144909 | 84 | 0 | 7.0 | 11.0 | 0.00 | 0.02 | 0.00 | 86 | 1013.8 |
| 20260902144808 | 84 | 0 | 8.0 | 11.0 | 0.00 | 0.02 | 0.00 | 86 | 1013.9 |
| 20260902144709 | 84 | 0 | 5.0 | 11.0 | 0.00 | 0.02 | 0.00 | 86 | 1013.9 |
| 20260902144607 | 84 | 0 | 4.0 | 10.0 | 0.00 | 0.02 | 0.00 | 86 | 1013.9 |
| 20260902144508 | 83 | 0 | 4.0 | 10.0 | 0.00 | 0.02 | 0.00 | 86 | 1013.9 |
| 20260902144407 | 83 | 0 | 5.0 | 10.0 | 0.00 | 0.02 | 0.00 | 86 | 1013.9 |
| 20260902144308 | 83 | 0 | 5.0 | 10.0 | 0.00 | 0.02 | 0.00 | 86 | 1013.9 |
| 20260902144207 | 83 | 0 | 5.0 | 10.0 | 0.00 | 0.02 | 0.00 | 86 | 1013.8 |
| 20260902144109 | 83 | 0 | 5.0 | 10.0 | 0.00 | 0.02 | 0.00 | 86 | 1013.8 |
| 20260902144008 | 83 | 0 | 5.0 | 10.0 | 0.00 | 0.02 | 0.00 | 86 | 1013.8 |
| 20260902143908 | 83 | 0 | 6.0 | 10.0 | 0.00 | 0.02 | 0.00 | 86 | 1013.8 |
| 20260902143807 | 83 | 0 | 5.0 | 11.0 | 0.00 | 0.02 | 0.00 | 87 | 1013.9 |
| 20260902143707 | 83 | 0 | 5.0 | 11.0 | 0.00 | 0.02 | 0.00 | 87 | 1013.9 |
| 20260902143607 | 83 | 0 | 5.0 | 11.0 | 0.00 | 0.02 | 0.00 | 87 | 1013.8 |
| 20260902143508 | 83 | 0 | 4.0 | 11.0 | 0.00 | 0.02 | 0.00 | 87 | 1013.8 |
| 20260902143408 | 83 | 0 | 7.0 | 11.0 | 0.00 | 0.02 | 0.00 | 87 | 1013.8 |
| 20260902143309 | 83 | 0 | 7.0 | 11.0 | 0.00 | 0.02 | 0.00 | 87 | 1013.8 |
| 20260902143208 | 83 | 0 | 7.0 | 11.0 | 0.00 | 0.02 | 0.00 | 87 | 1013.7 |
| 20260902143109 | 83 | 0 | 6.0 | 13.0 | 0.00 | 0.02 | 0.00 | 87 | 1013.8 |
| 20260902143008 | 83 | 0 | 6.0 | 13.0 | 0.00 | 0.02 | 0.00 | 87 | 1013.8 |
| 20260902142908 | 83 | 0 | 6.0 | 13.0 | 0.00 | 0.02 | 0.00 | 87 | 1013.7 |
| 20260902142808 | 83 | 0 | 5.0 | 13.0 | 0.00 | 0.02 | 0.00 | 87 | 1013.7 |
| 20260902142707 | 83 | 0 | 7.0 | 13.0 | 0.00 | 0.02 | 0.00 | 87 | 1013.8 |
| 20260902142608 | 83 | 0 | 8.0 | 13.0 | 0.00 | 0.02 | 0.00 | 87 | 1013.8 |
| 20260902142507 | 83 | 0 | 7.0 | 13.0 | 0.00 | 0.02 | 0.00 | 87 | 1013.8 |
| 20260902142408 | 83 | 0 | 5.0 | 13.0 | 0.00 | 0.02 | 0.00 | 87 | 1013.8 |
| 20260902142307 | 83 | 0 | 6.0 | 13.0 | 0.00 | 0.02 | 0.00 | 87 | 1013.8 |
| 20260902142208 | 83 | 0 | 8.0 | 13.0 | 0.00 | 0.02 | 0.00 | 87 | 1013.9 |
| 20260902142109 | 83 | 0 | 7.0 | 10.0 | 0.00 | 0.02 | 0.00 | 87 | 1013.9 |
| 20260902142007 | 83 | 0 | 7.0 | 9.0 | 0.00 | 0.02 | 0.00 | 87 | 1013.9 |
| 20260902141909 | 0 | 0.0 | 0.0 | 0.00 | 0.02 | 0.00 | 1013.9 | ||
| 20260902141810 | 0 | 0.0 | 0.0 | 0.00 | 0.02 | 0.00 | 1013.9 | ||
| 20260902141708 | 0 | 0.0 | 0.0 | 0.00 | 0.02 | 0.00 | 1013.8 | ||
| 20260902141605 | 0 | 0.0 | 0.0 | 0.00 | 0.02 | 0.00 | 1013.8 | ||
| 20260902141505 | 0 | 0.0 | 0.0 | 0.00 | 0.02 | 0.00 | 1013.8 | ||
| 20260902141405 | 83 | 0 | 6.0 | 7.0 | 0.00 | 0.02 | 0.00 | 87 | 1013.8 |
| 20260902141305 | 83 | 0 | 6.0 | 12.0 | 0.00 | 0.02 | 0.00 | 87 | 1013.9 |
| 20260902141204 | 83 | 0 | 6.0 | 12.0 | 0.00 | 0.02 | 0.00 | 87 | 1013.8 |
| 20260902141104 | 83 | 0 | 6.0 | 12.0 | 0.00 | 0.02 | 0.00 | 87 | 1013.8 |
| 20260902141003 | 83 | 0 | 6.0 | 12.0 | 0.00 | 0.02 | 0.00 | 87 | 1013.9 |
| 20260902140904 | 83 | 0 | 6.0 | 12.0 | 0.00 | 0.02 | 0.00 | 87 | 1013.9 |
| 20260902140803 | 83 | 0 | 6.0 | 12.0 | 0.00 | 0.02 | 0.00 | 87 | 1013.9 |
| 20260902140703 | 83 | 0 | 6.0 | 12.0 | 0.00 | 0.02 | 0.00 | 87 | 1013.9 |
| 20260902140603 | 83 | 0 | 6.0 | 12.0 | 0.00 | 0.02 | 0.00 | 87 | 1013.8 |
| 20260902140504 | 83 | 0 | 6.0 | 12.0 | 0.00 | 0.02 | 0.00 | 87 | 1013.9 |
| 20260902140404 | 83 | 0 | 7.0 | 12.0 | 0.00 | 0.02 | 0.00 | 87 | 1013.8 |
| 20260902140303 | 83 | 0 | 6.0 | 11.0 | 0.00 | 0.02 | 0.00 | 87 | 1013.8 |
| 20260902140202 | 83 | 0 | 5.0 | 11.0 | 0.00 | 0.02 | 0.00 | 87 | 1013.7 |
| 20260902140103 | 83 | 0 | 6.0 | 11.0 | 0.00 | 0.02 | 0.00 | 87 | 1013.8 |
| 20260902140004 | 83 | 0 | 7.0 | 11.0 | 0.00 | 0.02 | 0.00 | 87 | 1013.8 |
| 20260902135904 | 83 | 0 | 7.0 | 11.0 | 0.00 | 0.02 | 0.00 | 87 | 1013.8 |
| 20260902135804 | 83 | 0 | 9.0 | 11.0 | 0.00 | 0.02 | 0.00 | 88 | 1013.7 |
| 20260902135703 | 83 | 0 | 4.0 | 7.0 | 0.00 | 0.02 | 0.00 | 88 | 1013.7 |
| 20260902135604 | 83 | 0 | 4.0 | 7.0 | 0.00 | 0.02 | 0.00 | 88 | 1013.7 |
| 20260902135503 | 83 | 0 | 4.0 | 7.0 | 0.00 | 0.02 | 0.00 | 88 | 1013.7 |
| 20260902135403 | 83 | 0 | 4.0 | 11.0 | 0.00 | 0.02 | 0.00 | 88 | 1013.7 |
| 20260902135306 | 83 | 0 | 4.0 | 11.0 | 0.00 | 0.02 | 0.00 | 88 | 1013.7 |
| 20260902135203 | 83 | 0 | 4.0 | 11.0 | 0.00 | 0.02 | 0.00 | 88 | 1013.6 |
| 20260902135103 | 83 | 0 | 5.0 | 11.0 | 0.00 | 0.02 | 0.00 | 88 | 1013.6 |
| 20260902135004 | 83 | 0 | 6.0 | 11.0 | 0.00 | 0.02 | 0.00 | 88 | 1013.7 |
| 20260902134903 | 83 | 0 | 6.0 | 11.0 | 0.00 | 0.02 | 0.00 | 88 | 1013.7 |
| 20260902134804 | 83 | 0 | 6.0 | 11.0 | 0.00 | 0.02 | 0.00 | 88 | 1013.7 |
| 20260902134703 | 83 | 0 | 6.0 | 11.0 | 0.00 | 0.02 | 0.00 | 88 | 1013.7 |
| 20260902134604 | 83 | 0 | 6.0 | 11.0 | 0.00 | 0.02 | 0.00 | 88 | 1013.7 |
| 20260902134435 | 83 | 0 | 5.0 | 11.0 | 0.00 | 0.02 | 0.00 | 88 | 1013.6 |
| 20260902134332 | 83 | 0 | 6.0 | 11.0 | 0.00 | 0.02 | 0.00 | 88 | 1013.7 |
| 20260902134219 | 83 | 0 | 6.0 | 11.0 | 0.00 | 0.02 | 0.00 | 88 | 1013.7 |
| 20260902134118 | 83 | 0 | 6.0 | 11.0 | 0.00 | 0.02 | 0.00 | 88 | 1013.7 |
| 20260902134007 | 83 | 0 | 6.0 | 11.0 | 0.00 | 0.02 | 0.00 | 88 | 1013.7 |
| 20260902133906 | 83 | 0 | 7.0 | 11.0 | 0.00 | 0.02 | 0.00 | 88 | 1013.7 |
| 20260902133804 | 83 | 0 | 6.0 | 11.0 | 0.00 | 0.02 | 0.00 | 88 | 1013.7 |
| 20260902133704 | 83 | 0 | 5.0 | 9.0 | 0.00 | 0.02 | 0.00 | 88 | 1013.7 |
| 20260902133603 | 83 | 0 | 4.0 | 9.0 | 0.00 | 0.02 | 0.00 | 88 | 1013.7 |
| 20260902133504 | 83 | 0 | 5.0 | 9.0 | 0.00 | 0.02 | 0.00 | 88 | 1013.7 |
| 20260902133405 | 83 | 0 | 4.0 | 9.0 | 0.00 | 0.02 | 0.00 | 88 | 1013.7 |
| 20260902133304 | 83 | 0 | 4.0 | 9.0 | 0.00 | 0.02 | 0.00 | 88 | 1013.6 |
| 20260902133202 | 83 | 0 | 4.0 | 9.0 | 0.00 | 0.02 | 0.00 | 88 | 1013.6 |
| 20260902133102 | 82 | 0 | 5.0 | 9.0 | 0.00 | 0.02 | 0.00 | 88 | 1013.6 |
| 20260902133003 | 82 | 0 | 6.0 | 9.0 | 0.00 | 0.02 | 0.00 | 88 | 1013.6 |
| 20260902132902 | 82 | 0 | 6.0 | 9.0 | 0.00 | 0.02 | 0.00 | 88 | 1013.6 |
| 20260902132802 | 82 | 0 | 5.0 | 7.0 | 0.00 | 0.02 | 0.00 | 88 | 1013.6 |
| 20260902132702 | 82 | 0 | 4.0 | 7.0 | 0.00 | 0.02 | 0.00 | 88 | 1013.6 |
| 20260902132604 | 82 | 0 | 5.0 | 7.0 | 0.00 | 0.02 | 0.00 | 88 | 1013.6 |
| 20260902132504 | 82 | 0 | 5.0 | 7.0 | 0.00 | 0.02 | 0.00 | 88 | 1013.6 |
| 20260902132403 | 82 | 0 | 5.0 | 10.0 | 0.00 | 0.02 | 0.00 | 88 | 1013.7 |
| 20260902132306 | 82 | 0 | 5.0 | 10.0 | 0.00 | 0.02 | 0.00 | 88 | 1013.6 |
| 20260902132203 | 82 | 0 | 5.0 | 10.0 | 0.00 | 0.02 | 0.00 | 88 | 1013.7 |
| 20260902132102 | 82 | 0 | 5.0 | 10.0 | 0.00 | 0.02 | 0.00 | 88 | 1013.6 |
| 20260902132004 | 82 | 0 | 5.0 | 10.0 | 0.00 | 0.02 | 0.00 | 88 | 1013.7 |
| 20260902131904 | 82 | 0 | 5.0 | 10.0 | 0.00 | 0.02 | 0.00 | 88 | 1013.7 |
| 20260902131803 | 82 | 0 | 5.0 | 10.0 | 0.00 | 0.02 | 0.00 | 88 | 1013.6 |
| 20260902131703 | 82 | 0 | 5.0 | 10.0 | 0.00 | 0.02 | 0.00 | 88 | 1013.6 |
| 20260902131601 | 82 | 0 | 6.0 | 10.0 | 0.00 | 0.02 | 0.00 | 88 | 1013.6 |
| 20260902131502 | 82 | 0 | 6.0 | 10.0 | 0.00 | 0.02 | 0.00 | 88 | 1013.6 |
| 20260902131402 | 82 | 0 | 5.0 | 9.0 | 0.00 | 0.02 | 0.00 | 88 | 1013.6 |
| 20260902131304 | 82 | 0 | 6.0 | 9.0 | 0.00 | 0.02 | 0.00 | 88 | 1013.6 |
| 20260902131203 | 82 | 0 | 5.0 | 6.0 | 0.00 | 0.02 | 0.00 | 88 | 1013.6 |
| 20260902131102 | 82 | 0 | 5.0 | 7.0 | 0.00 | 0.02 | 0.00 | 88 | 1013.5 |
| 20260902131004 | 82 | 0 | 5.0 | 9.0 | 0.00 | 0.02 | 0.00 | 88 | 1013.6 |
| 20260902130903 | 82 | 0 | 5.0 | 9.0 | 0.00 | 0.02 | 0.00 | 88 | 1013.6 |
| 20260902130754 | 82 | 0 | 5.0 | 9.0 | 0.00 | 0.02 | 0.00 | 88 | 1013.5 |
| 20260902130639 | 82 | 0 | 6.0 | 9.0 | 0.00 | 0.02 | 0.00 | 88 | 1013.5 |
| 20260902130537 | 82 | 0 | 5.0 | 9.0 | 0.00 | 0.02 | 0.00 | 89 | 1013.5 |
| 20260902130432 | 82 | 0 | 5.0 | 9.0 | 0.00 | 0.02 | 0.00 | 89 | 1013.5 |
| 20260902130333 | 82 | 0 | 5.0 | 10.0 | 0.00 | 0.02 | 0.00 | 89 | 1013.5 |
| 20260902130204 | 82 | 0 | 6.0 | 10.0 | 0.00 | 0.02 | 0.00 | 89 | 1013.5 |
| 20260902130104 | 82 | 0 | 6.0 | 10.0 | 0.00 | 0.02 | 0.00 | 89 | 1013.5 |
| 20260902130003 | 82 | 0 | 5.0 | 10.0 | 0.00 | 0.02 | 0.00 | 89 | 1013.5 |
| 20260902125903 | 82 | 0 | 5.0 | 10.0 | 0.00 | 0.02 | 0.00 | 89 | 1013.4 |
| 20260902125802 | 82 | 0 | 4.0 | 10.0 | 0.00 | 0.02 | 0.00 | 89 | 1013.4 |
| 20260902125702 | 82 | 0 | 3.0 | 10.0 | 0.00 | 0.02 | 0.00 | 89 | 1013.4 |
| 20260902125603 | 82 | 0 | 4.0 | 10.0 | 0.00 | 0.02 | 0.00 | 89 | 1013.4 |
| 20260902125502 | 82 | 0 | 6.0 | 10.0 | 0.00 | 0.02 | 0.00 | 89 | 1013.4 |
| 20260902125402 | 82 | 0 | 5.0 | 10.0 | 0.00 | 0.02 | 0.00 | 89 | 1013.4 |
| 20260902125305 | 82 | 0 | 5.0 | 10.0 | 0.00 | 0.02 | 0.00 | 89 | 1013.3 |
| 20260902125202 | 82 | 0 | 6.0 | 11.0 | 0.00 | 0.02 | 0.00 | 89 | 1013.3 |
| 20260902125101 | 82 | 0 | 5.0 | 11.0 | 0.00 | 0.02 | 0.00 | 89 | 1013.3 |
| 20260902125002 | 82 | 0 | 4.0 | 11.0 | 0.00 | 0.02 | 0.00 | 89 | 1013.3 |
| 20260902124901 | 82 | 0 | 5.0 | 11.0 | 0.00 | 0.02 | 0.00 | 89 | 1013.3 |
| 20260902124802 | 82 | 0 | 5.0 | 11.0 | 0.00 | 0.02 | 0.00 | 89 | 1013.3 |
| 20260902124702 | 82 | 0 | 6.0 | 11.0 | 0.00 | 0.02 | 0.00 | 89 | 1013.3 |
| 20260902124602 | 82 | 0 | 6.0 | 11.0 | 0.00 | 0.02 | 0.00 | 89 | 1013.3 |
| 20260902124502 | 82 | 0 | 6.0 | 11.0 | 0.00 | 0.02 | 0.00 | 89 | 1013.3 |
| 20260902124401 | 82 | 0 | 7.0 | 11.0 | 0.00 | 0.02 | 0.00 | 89 | 1013.2 |
| 20260902124303 | 82 | 0 | 6.0 | 11.0 | 0.00 | 0.02 | 0.00 | 89 | 1013.2 |
| 20260902124201 | 82 | 0 | 5.0 | 11.0 | 0.00 | 0.02 | 0.00 | 89 | 1013.3 |
| 20260902124103 | 82 | 0 | 5.0 | 10.0 | 0.00 | 0.02 | 0.00 | 89 | 1013.2 |
| 20260902124001 | 82 | 0 | 5.0 | 12.0 | 0.00 | 0.02 | 0.00 | 89 | 1013.2 |
| 20260902123902 | 82 | 0 | 5.0 | 14.0 | 0.00 | 0.02 | 0.00 | 89 | 1013.1 |
| 20260902123803 | 82 | 0 | 5.0 | 14.0 | 0.00 | 0.02 | 0.00 | 89 | 1013.0 |
| 20260902123700 | 82 | 0 | 6.0 | 14.0 | 0.00 | 0.02 | 0.00 | 89 | 1013.2 |
| 20260902123602 | 82 | 0 | 6.0 | 14.0 | 0.00 | 0.02 | 0.00 | 89 | 1013.0 |
| 20260902123500 | 82 | 0 | 6.0 | 14.0 | 0.00 | 0.02 | 0.00 | 89 | 1013.0 |
| 20260902123402 | 82 | 0 | 5.0 | 14.0 | 0.00 | 0.02 | 0.00 | 89 | 1013.0 |
| 20260902123305 | 82 | 0 | 4.0 | 14.0 | 0.00 | 0.02 | 0.00 | 89 | 1013.0 |
| 20260902123200 | 82 | 0 | 7.0 | 14.0 | 0.00 | 0.02 | 0.00 | 89 | 1013.0 |
| 20260902123101 | 82 | 0 | 9.0 | 14.0 | 0.00 | 0.02 | 0.00 | 89 | 1013.0 |
| 20260902123001 | 82 | 0 | 8.0 | 14.0 | 0.00 | 0.02 | 0.00 | 89 | 1012.9 |
| 20260902122902 | 82 | 0 | 5.0 | 10.0 | 0.00 | 0.02 | 0.00 | 89 | 1012.9 |
| 20260902122803 | 82 | 0 | 4.0 | 9.0 | 0.00 | 0.02 | 0.00 | 89 | 1012.8 |
| 20260902122700 | 82 | 0 | 4.0 | 10.0 | 0.00 | 0.02 | 0.00 | 89 | 1012.8 |
| 20260902122601 | 82 | 0 | 3.0 | 10.0 | 0.00 | 0.02 | 0.00 | 89 | 1012.8 |
| 20260902122502 | 82 | 0 | 4.0 | 11.0 | 0.00 | 0.02 | 0.00 | 89 | 1012.8 |
| 20260902122401 | 82 | 0 | 5.0 | 11.0 | 0.00 | 0.02 | 0.00 | 89 | 1012.7 |
| 20260902122305 | 82 | 0 | 6.0 | 11.0 | 0.00 | 0.02 | 0.00 | 89 | 1012.7 |
| 20260902122200 | 82 | 0 | 6.0 | 11.0 | 0.00 | 0.02 | 0.00 | 89 | 1012.7 |
| 20260902122100 | 82 | 0 | 6.0 | 12.0 | 0.00 | 0.02 | 0.00 | 89 | 1012.7 |
| 20260902122002 | 82 | 0 | 6.0 | 12.0 | 0.00 | 0.02 | 0.00 | 89 | 1012.6 |
| 20260902121900 | 82 | 0 | 6.0 | 12.0 | 0.00 | 0.02 | 0.00 | 89 | 1012.5 |
| 20260902121801 | 82 | 0 | 6.0 | 12.0 | 0.00 | 0.02 | 0.00 | 89 | 1012.5 |
| 20260902121702 | 82 | 0 | 7.0 | 12.0 | 0.00 | 0.02 | 0.00 | 89 | 1012.4 |
| 20260902121600 | 82 | 0 | 8.0 | 12.0 | 0.00 | 0.02 | 0.00 | 89 | 1012.4 |
| 20260902121501 | 82 | 0 | 7.0 | 12.0 | 0.00 | 0.02 | 0.00 | 89 | 1012.4 |
| 20260902121402 | 82 | 0 | 4.0 | 12.0 | 0.00 | 0.02 | 0.00 | 89 | 1012.3 |
| 20260902121303 | 82 | 0 | 6.0 | 12.0 | 0.00 | 0.02 | 0.00 | 89 | 1012.3 |
| 20260902121202 | 82 | 0 | 7.0 | 12.0 | 0.00 | 0.02 | 0.00 | 89 | 1012.2 |
| 20260902121102 | 82 | 0 | 8.0 | 11.0 | 0.00 | 0.02 | 0.00 | 89 | 1012.3 |
| 20260902121001 | 82 | 0 | 7.0 | 11.0 | 0.00 | 0.02 | 0.00 | 89 | 1012.2 |
| 20260902120901 | 82 | 0 | 6.0 | 11.0 | 0.00 | 0.02 | 0.00 | 89 | 1012.2 |
| 20260902120801 | 82 | 0 | 6.0 | 11.0 | 0.00 | 0.02 | 0.00 | 89 | 1012.2 |
| 20260902120701 | 82 | 0 | 7.0 | 11.0 | 0.00 | 0.02 | 0.00 | 89 | 1012.2 |
| 20260902120600 | 82 | 0 | 6.0 | 11.0 | 0.00 | 0.02 | 0.00 | 89 | 1012.2 |
| 20260902120500 | 82 | 0 | 4.0 | 11.0 | 0.00 | 0.02 | 0.00 | 89 | 1012.2 |
| 20260902120400 | 82 | 0 | 4.0 | 11.0 | 0.00 | 0.02 | 0.00 | 89 | 1012.2 |
| 20260902120301 | 82 | 0 | 6.0 | 11.0 | 0.00 | 0.02 | 0.00 | 89 | 1012.1 |
| 20260902120200 | 82 | 0 | 6.0 | 11.0 | 0.00 | 0.02 | 0.00 | 89 | 1012.1 |
| 20260902120001 | 82 | 0 | 4.0 | 7.0 | 0.00 | 0.02 | 0.00 | 89 | 1012.1 |
| 20260902115901 | 82 | 0 | 5.0 | 7.0 | 0.00 | 0.02 | 0.00 | 89 | 1012.1 |
| 20260902115800 | 82 | 0 | 5.0 | 7.0 | 0.00 | 0.02 | 0.00 | 89 | 1012.2 |
| 20260902115701 | 82 | 0 | 6.0 | 9.0 | 0.00 | 0.02 | 0.00 | 89 | 1012.2 |
| 20260902115601 | 82 | 0 | 4.0 | 9.0 | 0.00 | 0.02 | 0.00 | 89 | 1012.2 |
| 20260902115501 | 82 | 0 | 4.0 | 9.0 | 0.00 | 0.02 | 0.00 | 89 | 1012.2 |
| 20260902115401 | 82 | 0 | 4.0 | 9.0 | 0.00 | 0.02 | 0.00 | 89 | 1012.2 |
| 20260902115301 | 82 | 0 | 4.0 | 9.0 | 0.00 | 0.02 | 0.00 | 89 | 1012.3 |
| 20260902115200 | 82 | 0 | 4.0 | 9.0 | 0.00 | 0.02 | 0.00 | 89 | 1012.3 |
| 20260902115101 | 82 | 0 | 9.0 | 9.0 | 0.00 | 0.02 | 0.00 | 88 | 1012.3 |
| 20260902115001 | 82 | 0 | 9.0 | 9.0 | 0.00 | 0.02 | 0.00 | 88 | 1012.2 |
| 20260902114901 | 82 | 0 | 9.0 | 9.0 | 0.00 | 0.02 | 0.00 | 88 | 1012.2 |
| 20260902114801 | 82 | 0 | 9.0 | 9.0 | 0.00 | 0.02 | 0.00 | 88 | 1012.2 |
| 20260902114700 | 82 | 0 | 4.0 | 5.0 | 0.00 | 0.02 | 0.00 | 88 | 1012.2 |
| 20260902114601 | 82 | 0 | 4.0 | 7.0 | 0.00 | 0.02 | 0.00 | 88 | 1012.3 |
| 20260902114500 | 82 | 0 | 4.0 | 10.0 | 0.00 | 0.02 | 0.00 | 88 | 1012.3 |
| 20260902114400 | 82 | 0 | 4.0 | 10.0 | 0.00 | 0.02 | 0.00 | 88 | 1012.3 |
| 20260902114259 | 82 | 0 | 3.0 | 11.0 | 0.00 | 0.02 | 0.00 | 88 | 1012.3 |
| 20260902114201 | 82 | 0 | 6.0 | 11.0 | 0.00 | 0.02 | 0.00 | 88 | 1012.3 |
| 20260902114101 | 82 | 0 | 6.0 | 11.0 | 0.00 | 0.02 | 0.00 | 88 | 1012.3 |
| 20260902114001 | 82 | 0 | 6.0 | 11.0 | 0.00 | 0.02 | 0.00 | 88 | 1012.3 |
| 20260902113901 | 82 | 0 | 6.0 | 11.0 | 0.00 | 0.02 | 0.00 | 88 | 1012.2 |
| 20260902113800 | 82 | 0 | 6.0 | 11.0 | 0.00 | 0.02 | 0.00 | 88 | 1012.2 |
| 20260902113659 | 82 | 0 | 7.0 | 11.0 | 0.00 | 0.02 | 0.00 | 88 | 1012.2 |
| 20260902113559 | 82 | 0 | 7.0 | 11.0 | 0.00 | 0.02 | 0.00 | 88 | 1012.1 |
| 20260902113500 | 82 | 0 | 7.0 | 11.0 | 0.00 | 0.02 | 0.00 | 88 | 1012.1 |
| 20260902113359 | 82 | 0 | 6.0 | 11.0 | 0.00 | 0.02 | 0.00 | 88 | 1012.2 |
| 20260902113301 | 82 | 0 | 5.0 | 11.0 | 0.00 | 0.02 | 0.00 | 88 | 1012.1 |
| 20260902113202 | 82 | 0 | 6.0 | 11.0 | 0.00 | 0.02 | 0.00 | 88 | 1012.1 |
| 20260902113100 | 82 | 0 | 7.0 | 11.0 | 0.00 | 0.02 | 0.00 | 88 | 1012.2 |
| 20260902113000 | 82 | 0 | 8.0 | 10.0 | 0.00 | 0.02 | 0.00 | 88 | 1012.2 |
| 20260902112900 | 82 | 0 | 6.0 | 10.0 | 0.00 | 0.02 | 0.00 | 88 | 1012.2 |
| 20260902112801 | 82 | 0 | 6.0 | 10.0 | 0.00 | 0.02 | 0.00 | 88 | 1012.2 |
| 20260902112700 | 82 | 0 | 6.0 | 10.0 | 0.00 | 0.02 | 0.00 | 88 | 1012.2 |
| 20260902112600 | 82 | 0 | 6.0 | 10.0 | 0.00 | 0.02 | 0.00 | 88 | 1012.2 |
| 20260902112500 | 82 | 0 | 6.0 | 10.0 | 0.00 | 0.02 | 0.00 | 88 | 1012.2 |
| 20260902112401 | 82 | 0 | 6.0 | 9.0 | 0.00 | 0.02 | 0.00 | 88 | 1012.2 |
| 20260902112259 | 82 | 0 | 5.0 | 7.0 | 0.00 | 0.02 | 0.00 | 88 | 1012.2 |
| 20260902112201 | 82 | 0 | 4.0 | 6.0 | 0.00 | 0.02 | 0.00 | 88 | 1012.3 |
| 20260902112100 | 82 | 0 | 3.0 | 7.0 | 0.00 | 0.02 | 0.00 | 88 | 1012.2 |
| 20260902112000 | 82 | 0 | 3.0 | 7.0 | 0.00 | 0.02 | 0.00 | 88 | 1012.2 |
| 20260902111900 | 82 | 0 | 3.0 | 7.0 | 0.00 | 0.02 | 0.00 | 88 | 1012.2 |
| 20260902111801 | 82 | 0 | 3.0 | 7.0 | 0.00 | 0.02 | 0.00 | 88 | 1012.2 |
| 20260902111659 | 82 | 0 | 2.0 | 9.0 | 0.00 | 0.02 | 0.00 | 88 | 1012.2 |
| 20260902111600 | 82 | 0 | 5.0 | 9.0 | 0.00 | 0.02 | 0.00 | 88 | 1012.2 |
| 20260902111500 | 82 | 0 | 5.0 | 9.0 | 0.00 | 0.02 | 0.00 | 88 | 1012.2 |
| 20260902111400 | 82 | 0 | 5.0 | 9.0 | 0.00 | 0.02 | 0.00 | 88 | 1012.2 |
| 20260902111301 | 82 | 0 | 5.0 | 9.0 | 0.00 | 0.02 | 0.00 | 88 | 1012.2 |
| 20260902111158 | 82 | 0 | 4.0 | 9.0 | 0.00 | 0.02 | 0.00 | 88 | 1012.2 |
| 20260902111100 | 82 | 0 | 5.0 | 9.0 | 0.00 | 0.02 | 0.00 | 88 | 1012.2 |
| 20260902110959 | 82 | 0 | 5.0 | 9.0 | 0.00 | 0.02 | 0.00 | 88 | 1012.2 |
| 20260902110900 | 82 | 0 | 6.0 | 9.0 | 0.00 | 0.02 | 0.00 | 88 | 1012.2 |
| 20260902110800 | 82 | 0 | 6.0 | 10.0 | 0.00 | 0.02 | 0.00 | 88 | 1012.1 |
| 20260902110657 | 82 | 0 | 6.0 | 10.0 | 0.00 | 0.02 | 0.00 | 88 | 1012.2 |
| 20260902110555 | 82 | 0 | 6.0 | 10.0 | 0.00 | 0.02 | 0.00 | 88 | 1012.2 |
| 20260902110433 | 82 | 0 | 6.0 | 10.0 | 0.00 | 0.02 | 0.00 | 88 | 1012.2 |
| 20260902110332 | 82 | 0 | 6.0 | 10.0 | 0.00 | 0.02 | 0.00 | 88 | 1012.2 |
| 20260902110203 | 82 | 0 | 6.0 | 10.0 | 0.00 | 0.02 | 0.00 | 88 | 1012.2 |
| 20260902110105 | 82 | 0 | 7.0 | 10.0 | 0.00 | 0.02 | 0.00 | 88 | 1012.2 |
| 20260902110005 | 82 | 0 | 7.0 | 10.0 | 0.00 | 0.02 | 0.00 | 88 | 1012.2 |
| 20260902105903 | 82 | 0 | 7.0 | 10.0 | 0.00 | 0.02 | 0.00 | 88 | 1012.2 |
| 20260902105802 | 82 | 0 | 6.0 | 10.0 | 0.00 | 0.02 | 0.00 | 88 | 1012.3 |
| 20260902105704 | 82 | 0 | 4.0 | 9.0 | 0.00 | 0.02 | 0.00 | 88 | 1012.2 |
| 20260902105602 | 82 | 0 | 5.0 | 9.0 | 0.00 | 0.02 | 0.00 | 88 | 1012.2 |
| 20260902105458 | 82 | 241 | 6.0 | 9.0 | 0.00 | 0.02 | 0.00 | 88 | 1012.3 |
| 20260902105358 | 82 | 0 | 6.0 | 9.0 | 0.00 | 0.02 | 0.00 | 88 | 1012.3 |
| 20260902105258 | 82 | 0 | 5.0 | 7.0 | 0.00 | 0.02 | 0.00 | 88 | 1012.3 |
| 20260902105158 | 82 | 0 | 4.0 | 7.0 | 0.00 | 0.02 | 0.00 | 88 | 1012.3 |
| 20260902105058 | 82 | 0 | 5.0 | 7.0 | 0.00 | 0.02 | 0.00 | 88 | 1012.4 |
| 20260902105000 | 82 | 0 | 5.0 | 7.0 | 0.00 | 0.02 | 0.00 | 88 | 1012.4 |
| 20260902104859 | 82 | 0 | 5.0 | 7.0 | 0.00 | 0.02 | 0.00 | 88 | 1012.4 |
| 20260902104759 | 82 | 0 | 5.0 | 7.0 | 0.00 | 0.02 | 0.00 | 88 | 1012.4 |
| 20260902104659 | 82 | 0 | 5.0 | 6.0 | 0.00 | 0.02 | 0.00 | 88 | 1012.4 |
| 20260902104600 | 82 | 0 | 4.0 | 6.0 | 0.00 | 0.02 | 0.00 | 88 | 1012.5 |
| 20260902104459 | 82 | 0 | 4.0 | 6.0 | 0.00 | 0.02 | 0.00 | 88 | 1012.5 |
| 20260902104358 | 82 | 0 | 4.0 | 6.0 | 0.00 | 0.02 | 0.00 | 88 | 1012.4 |
| 20260902104257 | 82 | 0 | 4.0 | 6.0 | 0.00 | 0.02 | 0.00 | 88 | 1012.4 |
| 20260902104158 | 82 | 0 | 4.0 | 6.0 | 0.00 | 0.02 | 0.00 | 88 | 1012.4 |
| 20260902104057 | 82 | 0 | 4.0 | 6.0 | 0.00 | 0.02 | 0.00 | 88 | 1012.4 |
| 20260902103958 | 82 | 0 | 4.0 | 6.0 | 0.00 | 0.02 | 0.00 | 88 | 1012.4 |
| 20260902103857 | 82 | 0 | 4.0 | 6.0 | 0.00 | 0.02 | 0.00 | 88 | 1012.4 |
| 20260902103732 | 82 | 0 | 5.0 | 6.0 | 0.00 | 0.02 | 0.00 | 88 | 1012.4 |
| 20260902103619 | 82 | 0 | 4.0 | 6.0 | 0.00 | 0.02 | 0.00 | 88 | 1012.4 |
| 20260902103518 | 82 | 0 | 4.0 | 6.0 | 0.00 | 0.02 | 0.00 | 88 | 1012.4 |
| 20260902103418 | 82 | 0 | 5.0 | 6.0 | 0.00 | 0.02 | 0.00 | 88 | 1012.5 |
| 20260902103317 | 82 | 0 | 4.0 | 6.0 | 0.00 | 0.02 | 0.00 | 88 | 1012.4 |
| 20260902103209 | 82 | 0 | 4.0 | 6.0 | 0.00 | 0.02 | 0.00 | 88 | 1012.4 |
| 20260902103108 | 82 | 0 | 3.0 | 6.0 | 0.00 | 0.02 | 0.00 | 88 | 1012.4 |
| 20260902103007 | 82 | 0 | 3.0 | 6.0 | 0.00 | 0.02 | 0.00 | 88 | 1012.4 |
| 20260902102904 | 82 | 0 | 3.0 | 6.0 | 0.00 | 0.02 | 0.00 | 88 | 1012.4 |
| 20260902102804 | 82 | 0 | 4.0 | 7.0 | 0.00 | 0.02 | 0.00 | 88 | 1012.4 |
| 20260902102703 | 82 | 0 | 4.0 | 7.0 | 0.00 | 0.02 | 0.00 | 88 | 1012.4 |
| 20260902102604 | 82 | 0 | 4.0 | 7.0 | 0.00 | 0.02 | 0.00 | 88 | 1012.4 |
| 20260902102505 | 82 | 0 | 4.0 | 10.0 | 0.00 | 0.02 | 0.00 | 88 | 1012.3 |
| 20260902102404 | 82 | 0 | 3.0 | 10.0 | 0.00 | 0.02 | 0.00 | 88 | 1012.3 |
| 20260902102307 | 82 | 0 | 2.0 | 10.0 | 0.00 | 0.02 | 0.00 | 88 | 1012.4 |
| 20260902102204 | 82 | 0 | 2.0 | 10.0 | 0.00 | 0.02 | 0.00 | 88 | 1012.3 |
| 20260902102101 | 82 | 0 | 3.0 | 10.0 | 0.00 | 0.02 | 0.00 | 88 | 1012.2 |
| 20260902102004 | 82 | 0 | 4.0 | 10.0 | 0.00 | 0.02 | 0.00 | 88 | 1012.3 |
| 20260902101902 | 82 | 0 | 5.0 | 10.0 | 0.00 | 0.02 | 0.00 | 88 | 1012.3 |
| 20260902101803 | 82 | 0 | 4.0 | 10.0 | 0.00 | 0.02 | 0.00 | 88 | 1012.2 |
| 20260902101702 | 82 | 0 | 5.0 | 10.0 | 0.00 | 0.02 | 0.00 | 88 | 1012.3 |
| 20260902101603 | 82 | 0 | 5.0 | 10.0 | 0.00 | 0.02 | 0.00 | 87 | 1012.2 |
| 20260902101504 | 82 | 0 | 5.0 | 7.0 | 0.00 | 0.02 | 0.00 | 87 | 1012.3 |
| 20260902101404 | 82 | 0 | 5.0 | 7.0 | 0.00 | 0.02 | 0.00 | 87 | 1012.3 |
| 20260902101303 | 82 | 0 | 4.0 | 7.0 | 0.00 | 0.02 | 0.00 | 87 | 1012.2 |
| 20260902101202 | 82 | 0 | 4.0 | 7.0 | 0.00 | 0.02 | 0.00 | 87 | 1012.2 |
| 20260902101103 | 82 | 0 | 4.0 | 7.0 | 0.00 | 0.02 | 0.00 | 87 | 1012.2 |
| 20260902101005 | 82 | 0 | 5.0 | 7.0 | 0.00 | 0.02 | 0.00 | 87 | 1012.1 |
| 20260902100902 | 82 | 0 | 6.0 | 7.0 | 0.00 | 0.02 | 0.00 | 87 | 1012.1 |
| 20260902100803 | 82 | 0 | 5.0 | 7.0 | 0.00 | 0.02 | 0.00 | 87 | 1012.2 |
| 20260902100704 | 82 | 0 | 4.0 | 7.0 | 0.00 | 0.02 | 0.00 | 87 | 1012.1 |
| 20260902100603 | 82 | 0 | 4.0 | 9.0 | 0.00 | 0.02 | 0.00 | 87 | 1012.1 |
| 20260902100504 | 82 | 0 | 5.0 | 12.0 | 0.00 | 0.02 | 0.00 | 87 | 1012.0 |
| 20260902100404 | 82 | 0 | 4.0 | 12.0 | 0.00 | 0.02 | 0.00 | 87 | 1012.1 |
| 20260902100304 | 82 | 0 | 4.0 | 12.0 | 0.00 | 0.02 | 0.00 | 87 | 1012.1 |
| 20260902100204 | 82 | 0 | 5.0 | 14.0 | 0.00 | 0.02 | 0.00 | 87 | 1012.1 |
| 20260902100004 | 82 | 0 | 5.0 | 14.0 | 0.00 | 0.02 | 0.00 | 87 | 1012.1 |
| 20260902095901 | 82 | 0 | 5.0 | 14.0 | 0.00 | 0.02 | 0.00 | 87 | 1012.1 |
| 20260902095804 | 82 | 0 | 5.0 | 14.0 | 0.00 | 0.02 | 0.00 | 87 | 1012.1 |
| 20260902095703 | 82 | 0 | 7.0 | 14.0 | 0.00 | 0.02 | 0.00 | 87 | 1012.1 |
| 20260902095556 | 82 | 0 | 7.0 | 14.0 | 0.00 | 0.02 | 0.00 | 87 | 1012.1 |
| 20260902095457 | 82 | 0 | 8.0 | 14.0 | 0.00 | 0.02 | 0.00 | 87 | 1012.1 |
| 20260902095356 | 82 | 0 | 9.0 | 14.0 | 0.00 | 0.02 | 0.00 | 87 | 1012.1 |
| 20260902095257 | 82 | 0 | 6.0 | 14.0 | 0.00 | 0.02 | 0.00 | 87 | 1012.1 |
| 20260902095155 | 82 | 0 | 5.0 | 14.0 | 0.00 | 0.02 | 0.00 | 87 | 1012.0 |
| 20260902095057 | 82 | 0 | 6.0 | 14.0 | 0.00 | 0.02 | 0.00 | 87 | 1012.0 |
| 20260902094956 | 82 | 0 | 6.0 | 14.0 | 0.00 | 0.02 | 0.00 | 87 | 1012.0 |
| 20260902094855 | 82 | 0 | 6.0 | 14.0 | 0.00 | 0.02 | 0.00 | 87 | 1012.0 |
| 20260902094757 | 82 | 0 | 6.0 | 14.0 | 0.00 | 0.02 | 0.00 | 87 | 1011.9 |
| 20260902094655 | 82 | 0 | 6.0 | 14.0 | 0.00 | 0.02 | 0.00 | 87 | 1012.0 |
| 20260902094555 | 82 | 0 | 6.0 | 14.0 | 0.00 | 0.02 | 0.00 | 87 | 1012.0 |
| 20260902094456 | 82 | 0 | 9.0 | 14.0 | 0.00 | 0.02 | 0.00 | 87 | 1012.0 |
| 20260902094356 | 82 | 0 | 9.0 | 14.0 | 0.00 | 0.02 | 0.00 | 87 | 1012.0 |
| 20260902094258 | 82 | 0 | 7.0 | 11.0 | 0.00 | 0.02 | 0.00 | 87 | 1012.0 |
| 20260902094155 | 82 | 0 | 6.0 | 11.0 | 0.00 | 0.02 | 0.00 | 87 | 1012.0 |
| 20260902094056 | 82 | 0 | 7.0 | 11.0 | 0.00 | 0.02 | 0.00 | 87 | 1012.0 |
| 20260902093956 | 82 | 0 | 6.0 | 11.0 | 0.00 | 0.02 | 0.00 | 87 | 1012.0 |
| 20260902093857 | 82 | 0 | 6.0 | 11.0 | 0.00 | 0.02 | 0.00 | 87 | 1012.0 |
| 20260902093755 | 82 | 0 | 6.0 | 11.0 | 0.00 | 0.02 | 0.00 | 87 | 1012.1 |
| 20260902093657 | 82 | 0 | 6.0 | 11.0 | 0.00 | 0.02 | 0.00 | 87 | 1012.0 |
| 20260902093556 | 82 | 0 | 6.0 | 11.0 | 0.00 | 0.02 | 0.00 | 87 | 1012.1 |
| 20260902093455 | 82 | 0 | 6.0 | 11.0 | 0.00 | 0.02 | 0.00 | 87 | 1012.1 |
| 20260902093355 | 82 | 0 | 5.0 | 10.0 | 0.00 | 0.02 | 0.00 | 87 | 1012.1 |
| 20260902093256 | 82 | 0 | 6.0 | 10.0 | 0.00 | 0.02 | 0.00 | 87 | 1012.1 |
| 20260902093156 | 82 | 0 | 6.0 | 10.0 | 0.00 | 0.02 | 0.00 | 87 | 1012.2 |
| 20260902093055 | 82 | 0 | 5.0 | 10.0 | 0.00 | 0.02 | 0.00 | 87 | 1012.2 |
| 20260902092955 | 82 | 0 | 5.0 | 10.0 | 0.00 | 0.02 | 0.00 | 87 | 1012.2 |
| 20260902092856 | 82 | 0 | 4.0 | 10.0 | 0.00 | 0.02 | 0.00 | 87 | 1012.2 |
| 20260902092755 | 82 | 0 | 5.0 | 10.0 | 0.00 | 0.02 | 0.00 | 87 | 1012.2 |
| 20260902092657 | 82 | 0 | 6.0 | 10.0 | 0.00 | 0.02 | 0.00 | 87 | 1012.2 |
| 20260902092556 | 82 | 0 | 6.0 | 10.0 | 0.00 | 0.02 | 0.00 | 87 | 1012.3 |
| 20260902092455 | 82 | 0 | 5.0 | 10.0 | 0.00 | 0.02 | 0.00 | 87 | 1012.2 |
| 20260902092354 | 82 | 0 | 6.0 | 10.0 | 0.00 | 0.02 | 0.00 | 87 | 1012.2 |
| 20260902092257 | 82 | 0 | 6.0 | 10.0 | 0.00 | 0.02 | 0.00 | 86 | 1012.2 |
| 20260902092155 | 82 | 0 | 6.0 | 10.0 | 0.00 | 0.02 | 0.00 | 86 | 1012.2 |
| 20260902092055 | 82 | 0 | 6.0 | 10.0 | 0.00 | 0.02 | 0.00 | 86 | 1012.2 |
| 20260902091955 | 82 | 0 | 6.0 | 11.0 | 0.00 | 0.02 | 0.00 | 86 | 1012.2 |
| 20260902091856 | 82 | 0 | 8.0 | 12.0 | 0.00 | 0.02 | 0.00 | 86 | 1012.1 |
| 20260902091755 | 82 | 0 | 7.0 | 12.0 | 0.00 | 0.02 | 0.00 | 86 | 1012.2 |
| 20260902091655 | 82 | 0 | 6.0 | 12.0 | 0.00 | 0.02 | 0.00 | 86 | 1012.2 |
| 20260902091555 | 82 | 0 | 6.0 | 12.0 | 0.00 | 0.02 | 0.00 | 86 | 1012.2 |
| 20260902091455 | 82 | 0 | 8.0 | 12.0 | 0.00 | 0.02 | 0.00 | 86 | 1012.1 |
| 20260902091356 | 82 | 0 | 6.0 | 12.0 | 0.00 | 0.02 | 0.00 | 86 | 1012.1 |
| 20260902091255 | 82 | 0 | 6.0 | 12.0 | 0.00 | 0.02 | 0.00 | 86 | 1012.2 |
| 20260902091156 | 82 | 0 | 6.0 | 12.0 | 0.00 | 0.02 | 0.00 | 86 | 1012.1 |
| 20260902091054 | 82 | 0 | 7.0 | 12.0 | 0.00 | 0.02 | 0.00 | 86 | 1012.1 |
| 20260902090955 | 82 | 0 | 8.0 | 12.0 | 0.00 | 0.02 | 0.00 | 86 | 1012.1 |
| 20260902090854 | 82 | 0 | 7.0 | 11.0 | 0.00 | 0.02 | 0.00 | 86 | 1012.0 |
| 20260902090757 | 82 | 0 | 6.0 | 11.0 | 0.00 | 0.02 | 0.00 | 86 | 1012.1 |
| 20260902090656 | 82 | 0 | 5.0 | 9.0 | 0.00 | 0.02 | 0.00 | 86 | 1012.0 |
| 20260902090556 | 82 | 0 | 5.0 | 9.0 | 0.00 | 0.02 | 0.00 | 86 | 1012.0 |
| 20260902090455 | 82 | 0 | 5.0 | 10.0 | 0.00 | 0.02 | 0.00 | 86 | 1012.0 |
| 20260902090356 | 82 | 0 | 6.0 | 10.0 | 0.00 | 0.02 | 0.00 | 86 | 1012.0 |
| 20260902090256 | 82 | 0 | 6.0 | 10.0 | 0.00 | 0.02 | 0.00 | 86 | 1011.9 |
| 20260902090154 | 82 | 0 | 5.0 | 10.0 | 0.00 | 0.02 | 0.00 | 86 | 1011.9 |
| 20260902090055 | 82 | 0 | 6.0 | 10.0 | 0.00 | 0.02 | 0.00 | 86 | 1012.0 |
| 20260902085955 | 82 | 0 | 6.0 | 10.0 | 0.00 | 0.02 | 0.00 | 86 | 1012.0 |
| 20260902085855 | 82 | 0 | 6.0 | 10.0 | 0.00 | 0.02 | 0.00 | 86 | 1012.0 |
| 20260902085754 | 83 | 0 | 6.0 | 10.0 | 0.00 | 0.02 | 0.00 | 86 | 1012.0 |
| 20260902085654 | 82 | 0 | 7.0 | 10.0 | 0.00 | 0.02 | 0.00 | 86 | 1012.0 |
| 20260902085555 | 83 | 0 | 6.0 | 10.0 | 0.00 | 0.02 | 0.00 | 86 | 1012.0 |
| 20260902085455 | 82 | 0 | 4.0 | 10.0 | 0.00 | 0.02 | 0.00 | 86 | 1012.0 |
| 20260902085355 | 82 | 0 | 4.0 | 10.0 | 0.00 | 0.02 | 0.00 | 86 | 1012.0 |
| 20260902085254 | 83 | 0 | 5.0 | 11.0 | 0.00 | 0.02 | 0.00 | 86 | 1012.0 |
| 20260902085154 | 83 | 0 | 6.0 | 11.0 | 0.00 | 0.02 | 0.00 | 86 | 1012.0 |
| 20260902085055 | 83 | 0 | 6.0 | 11.0 | 0.00 | 0.02 | 0.00 | 86 | 1012.0 |
| 20260902084954 | 83 | 0 | 6.0 | 11.0 | 0.00 | 0.02 | 0.00 | 86 | 1012.1 |
| 20260902084854 | 83 | 0 | 7.0 | 11.0 | 0.00 | 0.02 | 0.00 | 86 | 1012.0 |
| 20260902084755 | 83 | 0 | 6.0 | 11.0 | 0.00 | 0.02 | 0.00 | 86 | 1012.0 |
| 20260902084655 | 83 | 0 | 5.0 | 11.0 | 0.00 | 0.02 | 0.00 | 86 | 1012.0 |
| 20260902084553 | 83 | 0 | 6.0 | 11.0 | 0.00 | 0.02 | 0.00 | 86 | 1012.0 |
| 20260902084453 | 83 | 0 | 7.0 | 11.0 | 0.00 | 0.02 | 0.00 | 86 | 1012.0 |
| 20260902084356 | 83 | 0 | 8.0 | 11.0 | 0.00 | 0.02 | 0.00 | 86 | 1012.0 |
| 20260902084255 | 83 | 0 | 7.0 | 10.0 | 0.00 | 0.02 | 0.00 | 86 | 1012.0 |
| 20260902084155 | 83 | 0 | 4.0 | 10.0 | 0.00 | 0.02 | 0.00 | 86 | 1012.0 |
| 20260902084055 | 83 | 0 | 4.0 | 11.0 | 0.00 | 0.02 | 0.00 | 86 | 1012.0 |
| 20260902083954 | 83 | 0 | 4.0 | 11.0 | 0.00 | 0.02 | 0.00 | 86 | 1012.0 |
| 20260902083855 | 83 | 0 | 4.0 | 11.0 | 0.00 | 0.02 | 0.00 | 86 | 1012.0 |
| 20260902083755 | 83 | 0 | 4.0 | 11.0 | 0.00 | 0.02 | 0.00 | 86 | 1012.1 |
| 20260902083655 | 83 | 0 | 6.0 | 11.0 | 0.00 | 0.02 | 0.00 | 86 | 1012.0 |
| 20260902083554 | 83 | 0 | 6.0 | 11.0 | 0.00 | 0.02 | 0.00 | 86 | 1012.1 |
| 20260902083453 | 83 | 0 | 5.0 | 11.0 | 0.00 | 0.02 | 0.00 | 85 | 1012.1 |
| 20260902083354 | 83 | 0 | 5.0 | 11.0 | 0.00 | 0.02 | 0.00 | 85 | 1012.1 |
| 20260902083253 | 83 | 0 | 7.0 | 11.0 | 0.00 | 0.02 | 0.00 | 85 | 1012.1 |
| 20260902083154 | 83 | 0 | 7.0 | 11.0 | 0.00 | 0.02 | 0.00 | 85 | 1012.2 |
| 20260902083054 | 83 | 0 | 7.0 | 10.0 | 0.00 | 0.02 | 0.00 | 85 | 1012.2 |
| 20260902082954 | 83 | 0 | 6.0 | 10.0 | 0.00 | 0.02 | 0.00 | 85 | 1012.1 |
| 20260902082853 | 83 | 0 | 6.0 | 10.0 | 0.00 | 0.02 | 0.00 | 85 | 1012.2 |
| 20260902082754 | 83 | 0 | 5.0 | 10.0 | 0.00 | 0.02 | 0.00 | 85 | 1012.2 |
| 20260902082654 | 83 | 0 | 4.0 | 10.0 | 0.00 | 0.02 | 0.00 | 85 | 1012.1 |
| 20260902082555 | 83 | 0 | 6.0 | 10.0 | 0.00 | 0.02 | 0.00 | 85 | 1012.1 |
| 20260902082454 | 83 | 0 | 6.0 | 10.0 | 0.00 | 0.02 | 0.00 | 85 | 1012.1 |
| 20260902082355 | 83 | 0 | 6.0 | 10.0 | 0.00 | 0.02 | 0.00 | 85 | 1012.2 |
| 20260902082255 | 83 | 0 | 6.0 | 10.0 | 0.00 | 0.02 | 0.00 | 85 | 1012.2 |
| 20260902082154 | 83 | 0 | 5.0 | 10.0 | 0.00 | 0.02 | 0.00 | 85 | 1012.1 |
| 20260902082053 | 83 | 0 | 6.0 | 11.0 | 0.00 | 0.02 | 0.00 | 85 | 1012.1 |
| 20260902081955 | 83 | 0 | 7.0 | 11.0 | 0.00 | 0.02 | 0.00 | 85 | 1012.2 |
| 20260902081854 | 83 | 0 | 6.0 | 11.0 | 0.00 | 0.02 | 0.00 | 85 | 1012.2 |
| 20260902081753 | 83 | 0 | 5.0 | 11.0 | 0.00 | 0.02 | 0.00 | 85 | 1012.1 |
| 20260902081654 | 83 | 0 | 4.0 | 11.0 | 0.00 | 0.02 | 0.00 | 85 | 1012.2 |
| 20260902081556 | 83 | 0 | 4.0 | 11.0 | 0.00 | 0.02 | 0.00 | 85 | 1012.1 |
| 20260902081455 | 83 | 0 | 3.0 | 11.0 | 0.00 | 0.02 | 0.00 | 85 | 1012.2 |
| 20260902081353 | 83 | 0 | 3.0 | 11.0 | 0.00 | 0.02 | 0.00 | 85 | 1012.1 |
| 20260902081253 | 83 | 0 | 6.0 | 11.0 | 0.00 | 0.02 | 0.00 | 85 | 1012.2 |
| 20260902081153 | 83 | 0 | 6.0 | 11.0 | 0.00 | 0.02 | 0.00 | 85 | 1012.2 |
| 20260902081054 | 83 | 0 | 4.0 | 10.0 | 0.00 | 0.02 | 0.00 | 85 | 1012.2 |
| 20260902080953 | 83 | 0 | 4.0 | 10.0 | 0.00 | 0.02 | 0.00 | 85 | 1012.2 |
| 20260902080854 | 83 | 0 | 5.0 | 10.0 | 0.00 | 0.02 | 0.00 | 85 | 1012.1 |
| 20260902080754 | 83 | 0 | 6.0 | 10.0 | 0.00 | 0.02 | 0.00 | 85 | 1012.1 |
| 20260902080653 | 83 | 0 | 6.0 | 10.0 | 0.00 | 0.02 | 0.00 | 85 | 1012.2 |
| 20260902080554 | 83 | 0 | 6.0 | 10.0 | 0.00 | 0.02 | 0.00 | 85 | 1012.1 |
| 20260902080453 | 83 | 0 | 6.0 | 10.0 | 0.00 | 0.02 | 0.00 | 85 | 1012.1 |
| 20260902080354 | 83 | 0 | 5.0 | 10.0 | 0.00 | 0.02 | 0.00 | 85 | 1012.1 |
| 20260902080254 | 83 | 0 | 4.0 | 9.0 | 0.00 | 0.02 | 0.00 | 85 | 1012.1 |
| 20260902080152 | 83 | 0 | 4.0 | 9.0 | 0.00 | 0.02 | 0.00 | 85 | 1012.1 |
| 20260902080053 | 83 | 0 | 2.0 | 10.0 | 0.00 | 0.02 | 0.00 | 84 | 1012.1 |
| 20260902075954 | 83 | 0 | 5.0 | 10.0 | 0.00 | 0.02 | 0.00 | 84 | 1012.1 |
| 20260902075854 | 83 | 0 | 5.0 | 10.0 | 0.00 | 0.02 | 0.00 | 84 | 1012.1 |
| 20260902075754 | 83 | 0 | 5.0 | 11.0 | 0.00 | 0.02 | 0.00 | 84 | 1012.1 |
| 20260902075654 | 83 | 0 | 5.0 | 11.0 | 0.00 | 0.02 | 0.00 | 84 | 1012.1 |
| 20260902075554 | 83 | 0 | 6.0 | 11.0 | 0.00 | 0.02 | 0.00 | 84 | 1012.1 |
| 20260902075454 | 83 | 0 | 5.0 | 11.0 | 0.00 | 0.02 | 0.00 | 84 | 1012.1 |
| 20260902075352 | 83 | 0 | 5.0 | 11.0 | 0.00 | 0.02 | 0.00 | 84 | 1012.2 |
| 20260902075253 | 83 | 0 | 6.0 | 11.0 | 0.00 | 0.02 | 0.00 | 84 | 1012.2 |
| 20260902075153 | 83 | 0 | 6.0 | 11.0 | 0.00 | 0.02 | 0.00 | 84 | 1012.2 |
| 20260902075052 | 83 | 0 | 6.0 | 11.0 | 0.00 | 0.02 | 0.00 | 84 | 1012.1 |
| 20260902074952 | 83 | 0 | 6.0 | 11.0 | 0.00 | 0.02 | 0.00 | 84 | 1012.1 |
| 20260902074852 | 83 | 0 | 6.0 | 11.0 | 0.00 | 0.02 | 0.00 | 84 | 1012.2 |
| 20260902074753 | 83 | 0 | 6.0 | 11.0 | 0.00 | 0.02 | 0.00 | 84 | 1012.2 |
| 20260902074655 | 83 | 0 | 4.0 | 11.0 | 0.00 | 0.02 | 0.00 | 84 | 1012.2 |
| 20260902074552 | 83 | 0 | 4.0 | 11.0 | 0.00 | 0.02 | 0.00 | 84 | 1012.2 |
| 20260902074452 | 83 | 0 | 6.0 | 11.0 | 0.00 | 0.02 | 0.00 | 84 | 1012.2 |
| 20260902074352 | 83 | 0 | 7.0 | 11.0 | 0.00 | 0.02 | 0.00 | 84 | 1012.2 |
| 20260902074252 | 83 | 0 | 5.0 | 10.0 | 0.00 | 0.02 | 0.00 | 84 | 1012.2 |
| 20260902074153 | 83 | 0 | 5.0 | 9.0 | 0.00 | 0.02 | 0.00 | 84 | 1012.2 |
| 20260902074052 | 83 | 0 | 6.0 | 9.0 | 0.00 | 0.02 | 0.00 | 84 | 1012.2 |
| 20260902073952 | 83 | 0 | 6.0 | 9.0 | 0.00 | 0.02 | 0.00 | 84 | 1012.2 |
| 20260902073852 | 83 | 0 | 5.0 | 9.0 | 0.00 | 0.02 | 0.00 | 84 | 1012.2 |
| 20260902073752 | 83 | 0 | 6.0 | 9.0 | 0.00 | 0.02 | 0.00 | 84 | 1012.2 |
| 20260902073653 | 83 | 0 | 5.0 | 9.0 | 0.00 | 0.02 | 0.00 | 84 | 1012.3 |
| 20260902073553 | 83 | 0 | 4.0 | 5.0 | 0.00 | 0.02 | 0.00 | 84 | 1012.3 |
| 20260902073454 | 83 | 0 | 5.0 | 5.0 | 0.00 | 0.02 | 0.00 | 84 | 1012.2 |
| 20260902073354 | 0 | 0.0 | 0.0 | 0.00 | 0.02 | 0.00 | 1012.3 | ||
| 20260902073253 | 0 | 0.0 | 0.0 | 0.00 | 0.02 | 0.00 | 1012.2 | ||
| 20260902073154 | 0 | 0.0 | 0.0 | 0.00 | 0.02 | 0.00 | 1012.3 | ||
| 20260902073052 | 0 | 0.0 | 0.0 | 0.00 | 0.02 | 0.00 | 1012.3 | ||
| 20260902072951 | 0 | 0 | 3.0 | 3.0 | 0.00 | 0.02 | 0.00 | 1012.4 | |
| 20260902072833 | 83 | 0 | 3.0 | 3.0 | 0.00 | 0.02 | 0.00 | 84 | 1012.3 |
| 20260902072731 | 83 | 0 | 3.0 | 4.0 | 0.00 | 0.02 | 0.00 | 84 | 1012.3 |
| 20260902072632 | 83 | 0 | 3.0 | 4.0 | 0.00 | 0.02 | 0.00 | 84 | 1012.3 |
| 20260902072532 | 83 | 0 | 3.0 | 4.0 | 0.00 | 0.02 | 0.00 | 84 | 1012.4 |
| 20260902072432 | 83 | 0 | 3.0 | 4.0 | 0.00 | 0.02 | 0.00 | 84 | 1012.3 |
| 20260902072332 | 83 | 0 | 3.0 | 4.0 | 0.00 | 0.02 | 0.00 | 84 | 1012.4 |
| 20260902072232 | 83 | 0 | 3.0 | 6.0 | 0.00 | 0.02 | 0.00 | 84 | 1012.3 |
| 20260902072132 | 83 | 0 | 3.0 | 7.0 | 0.00 | 0.02 | 0.00 | 84 | 1012.4 |
| 20260902072033 | 83 | 0 | 3.0 | 7.0 | 0.00 | 0.02 | 0.00 | 84 | 1012.3 |
| 20260902071932 | 83 | 0 | 3.0 | 7.0 | 0.00 | 0.02 | 0.00 | 84 | 1012.4 |
| 20260902071831 | 83 | 0 | 3.0 | 7.0 | 0.00 | 0.02 | 0.00 | 84 | 1012.3 |
| 20260902071731 | 83 | 0 | 3.0 | 7.0 | 0.00 | 0.02 | 0.00 | 84 | 1012.3 |
| 20260902071632 | 83 | 0 | 5.0 | 7.0 | 0.00 | 0.02 | 0.00 | 84 | 1012.3 |
| 20260902071532 | 83 | 0 | 5.0 | 7.0 | 0.00 | 0.02 | 0.00 | 84 | 1012.3 |
| 20260902071432 | 83 | 0 | 5.0 | 7.0 | 0.00 | 0.02 | 0.00 | 84 | 1012.2 |
| 20260902071332 | 83 | 0 | 5.0 | 7.0 | 0.00 | 0.02 | 0.00 | 84 | 1012.3 |
| 20260902071232 | 83 | 0 | 4.0 | 7.0 | 0.00 | 0.02 | 0.00 | 84 | 1012.2 |
| 20260902071132 | 83 | 0 | 4.0 | 6.0 | 0.00 | 0.02 | 0.00 | 84 | 1012.3 |
| 20260902071032 | 83 | 0 | 4.0 | 6.0 | 0.00 | 0.02 | 0.00 | 84 | 1012.2 |
| 20260902070933 | 83 | 0 | 4.0 | 6.0 | 0.00 | 0.02 | 0.00 | 83 | 1012.2 |
| 20260902070832 | 83 | 0 | 4.0 | 6.0 | 0.00 | 0.02 | 0.00 | 83 | 1012.2 |
| 20260902070731 | 83 | 0 | 3.0 | 6.0 | 0.00 | 0.02 | 0.00 | 83 | 1012.2 |
| 20260902070631 | 83 | 0 | 4.0 | 6.0 | 0.00 | 0.02 | 0.00 | 83 | 1012.2 |
| 20260902070532 | 83 | 0 | 4.0 | 6.0 | 0.00 | 0.02 | 0.00 | 83 | 1012.2 |
| 20260902070431 | 83 | 0 | 4.0 | 9.0 | 0.00 | 0.02 | 0.00 | 83 | 1012.2 |
| 20260902070332 | 83 | 0 | 3.0 | 9.0 | 0.00 | 0.02 | 0.00 | 83 | 1012.2 |
| 20260902070232 | 83 | 0 | 3.0 | 9.0 | 0.00 | 0.02 | 0.00 | 83 | 1012.2 |
| 20260902070105 | 83 | 0 | 3.0 | 9.0 | 0.00 | 0.02 | 0.00 | 83 | 1012.1 |
| 20260902070004 | 83 | 0 | 4.0 | 9.0 | 0.00 | 0.02 | 0.00 | 83 | 1012.2 |
| 20260902065903 | 83 | 0 | 5.0 | 9.0 | 0.00 | 0.02 | 0.00 | 83 | 1012.1 |
| 20260902065802 | 83 | 0 | 4.0 | 9.0 | 0.00 | 0.02 | 0.00 | 83 | 1012.2 |
| 20260902065704 | 83 | 0 | 4.0 | 9.0 | 0.00 | 0.02 | 0.00 | 83 | 1012.1 |
| 20260902065602 | 83 | 0 | 5.0 | 9.0 | 0.00 | 0.02 | 0.00 | 83 | 1012.2 |
| 20260902065505 | 83 | 0 | 5.0 | 9.0 | 0.00 | 0.02 | 0.00 | 83 | 1012.2 |
| 20260902065404 | 83 | 0 | 5.0 | 7.0 | 0.00 | 0.02 | 0.00 | 82 | 1012.2 |
| 20260902065306 | 83 | 0 | 5.0 | 7.0 | 0.00 | 0.02 | 0.00 | 82 | 1012.1 |
| 20260902065202 | 83 | 0 | 5.0 | 9.0 | 0.00 | 0.02 | 0.00 | 82 | 1012.2 |
| 20260902065103 | 83 | 0 | 6.0 | 9.0 | 0.00 | 0.02 | 0.00 | 82 | 1012.2 |
| 20260902065004 | 83 | 0 | 5.0 | 9.0 | 0.00 | 0.02 | 0.00 | 82 | 1012.1 |
| 20260902064902 | 83 | 0 | 5.0 | 9.0 | 0.00 | 0.02 | 0.00 | 82 | 1012.1 |
| 20260902064802 | 83 | 0 | 4.0 | 9.0 | 0.00 | 0.02 | 0.00 | 82 | 1012.1 |
| 20260902064702 | 83 | 0 | 4.0 | 9.0 | 0.00 | 0.02 | 0.00 | 82 | 1012.1 |
| 20260902064604 | 83 | 0 | 4.0 | 9.0 | 0.00 | 0.02 | 0.00 | 82 | 1012.1 |
| 20260902064505 | 83 | 0 | 4.0 | 9.0 | 0.00 | 0.02 | 0.00 | 82 | 1012.1 |
| 20260902064403 | 83 | 0 | 5.0 | 9.0 | 0.00 | 0.02 | 0.00 | 82 | 1012.1 |
| 20260902064304 | 83 | 0 | 6.0 | 9.0 | 0.00 | 0.02 | 0.00 | 82 | 1012.1 |
| 20260902064203 | 83 | 0 | 5.0 | 7.0 | 0.00 | 0.02 | 0.00 | 82 | 1012.1 |
| 20260902064102 | 83 | 0 | 5.0 | 7.0 | 0.00 | 0.02 | 0.00 | 81 | 1012.1 |
| 20260902064005 | 83 | 0 | 3.0 | 5.0 | 0.00 | 0.02 | 0.00 | 81 | 1012.2 |
| 20260902063903 | 83 | 0 | 3.0 | 5.0 | 0.00 | 0.02 | 0.00 | 81 | 1012.2 |
| 20260902063804 | 83 | 0 | 3.0 | 5.0 | 0.00 | 0.02 | 0.00 | 81 | 1012.1 |
| 20260902063702 | 83 | 0 | 3.0 | 5.0 | 0.00 | 0.02 | 0.00 | 81 | 1012.1 |
| 20260902063602 | 83 | 0 | 4.0 | 6.0 | 0.00 | 0.02 | 0.00 | 81 | 1012.1 |
| 20260902063503 | 83 | 0 | 5.0 | 6.0 | 0.00 | 0.02 | 0.00 | 81 | 1012.1 |
| 20260902063402 | 83 | 0 | 5.0 | 6.0 | 0.00 | 0.02 | 0.00 | 80 | 1012.2 |
| 20260902063305 | 83 | 0 | 3.0 | 6.0 | 0.00 | 0.02 | 0.00 | 80 | 1012.2 |
| 20260902063203 | 83 | 0 | 3.0 | 6.0 | 0.00 | 0.02 | 0.00 | 80 | 1012.2 |
| 20260902063104 | 83 | 0 | 3.0 | 6.0 | 0.00 | 0.02 | 0.00 | 80 | 1012.2 |
| 20260902063004 | 83 | 0 | 3.0 | 6.0 | 0.00 | 0.02 | 0.00 | 80 | 1012.2 |
| 20260902062904 | 83 | 0 | 4.0 | 6.0 | 0.00 | 0.02 | 0.00 | 80 | 1012.1 |
| 20260902062803 | 83 | 0 | 4.0 | 6.0 | 0.00 | 0.02 | 0.00 | 79 | 1012.1 |
| 20260902062703 | 83 | 0 | 4.0 | 6.0 | 0.00 | 0.02 | 0.00 | 79 | 1012.1 |
| 20260902062603 | 83 | 0 | 4.0 | 6.0 | 0.00 | 0.02 | 0.00 | 79 | 1012.2 |
| 20260902062503 | 83 | 0 | 5.0 | 6.0 | 0.00 | 0.02 | 0.00 | 79 | 1012.1 |
| 20260902062402 | 83 | 0 | 4.0 | 6.0 | 0.00 | 0.02 | 0.00 | 79 | 1012.1 |
| 20260902062306 | 83 | 0 | 4.0 | 5.0 | 0.00 | 0.02 | 0.00 | 79 | 1012.0 |
| 20260902062202 | 83 | 0 | 3.0 | 5.0 | 0.00 | 0.02 | 0.00 | 79 | 1012.1 |
| 20260902062104 | 83 | 0 | 4.0 | 5.0 | 0.00 | 0.02 | 0.00 | 79 | 1012.0 |
| 20260902062002 | 83 | 0 | 4.0 | 5.0 | 0.00 | 0.02 | 0.00 | 79 | 1012.0 |
| 20260902061903 | 83 | 0 | 4.0 | 5.0 | 0.00 | 0.02 | 0.00 | 79 | 1012.0 |
| 20260902061802 | 83 | 0 | 3.0 | 5.0 | 0.00 | 0.02 | 0.00 | 79 | 1012.0 |
| 20260902061702 | 83 | 0 | 3.0 | 5.0 | 0.00 | 0.02 | 0.00 | 79 | 1012.1 |
| 20260902061602 | 83 | 0 | 3.0 | 5.0 | 0.00 | 0.02 | 0.00 | 78 | 1012.1 |
| 20260902061503 | 83 | 0 | 3.0 | 5.0 | 0.00 | 0.02 | 0.00 | 78 | 1012.2 |
| 20260902061404 | 83 | 0 | 2.0 | 3.0 | 0.00 | 0.02 | 0.00 | 78 | 1012.1 |
| 20260902061302 | 83 | 0 | 2.0 | 4.0 | 0.00 | 0.02 | 0.00 | 78 | 1012.2 |
| 20260902061204 | 83 | 0 | 2.0 | 4.0 | 0.00 | 0.02 | 0.00 | 78 | 1012.2 |
| 20260902061103 | 83 | 0 | 2.0 | 4.0 | 0.00 | 0.02 | 0.00 | 78 | 1012.2 |
| 20260902061003 | 83 | 0 | 2.0 | 5.0 | 0.00 | 0.02 | 0.00 | 78 | 1012.1 |
| 20260902060902 | 83 | 0 | 1.0 | 5.0 | 0.00 | 0.02 | 0.00 | 78 | 1012.2 |
| 20260902060802 | 83 | 0 | 1.0 | 5.0 | 0.00 | 0.02 | 0.00 | 78 | 1012.1 |
| 20260902060701 | 83 | 0 | 1.0 | 5.0 | 0.00 | 0.02 | 0.00 | 78 | 1012.1 |
| 20260902060603 | 83 | 0 | 1.0 | 5.0 | 0.00 | 0.02 | 0.00 | 78 | 1012.1 |
| 20260902060454 | 83 | 0 | 2.0 | 5.0 | 0.00 | 0.02 | 0.00 | 78 | 1012.0 |
| 20260902060354 | 83 | 0 | 3.0 | 5.0 | 0.00 | 0.02 | 0.00 | 78 | 1012.1 |
| 20260902060249 | 83 | 0 | 3.0 | 5.0 | 0.00 | 0.02 | 0.00 | 78 | 1012.0 |
| 20260902060148 | 82 | 0 | 4.0 | 6.0 | 0.00 | 0.02 | 0.00 | 78 | 1012.0 |
| 20260902060046 | 82 | 0 | 3.0 | 6.0 | 0.00 | 0.02 | 0.00 | 78 | 1012.0 |
| 20260902055942 | 82 | 0 | 2.0 | 6.0 | 0.00 | 0.02 | 0.00 | 78 | 1012.0 |
| 20260902055834 | 82 | 0 | 3.0 | 6.0 | 0.00 | 0.02 | 0.00 | 78 | 1011.9 |
| 20260902055732 | 82 | 0 | 3.0 | 6.0 | 0.00 | 0.02 | 0.00 | 78 | 1011.9 |
| 20260902055632 | 82 | 0 | 3.0 | 6.0 | 0.00 | 0.02 | 0.00 | 78 | 1011.9 |
| 20260902055531 | 82 | 0 | 3.0 | 6.0 | 0.00 | 0.02 | 0.00 | 78 | 1011.9 |
| 20260902055432 | 82 | 0 | 4.0 | 6.0 | 0.00 | 0.02 | 0.00 | 78 | 1012.0 |
| 20260902055331 | 82 | 0 | 4.0 | 6.0 | 0.00 | 0.02 | 0.00 | 78 | 1011.9 |
| 20260902055231 | 82 | 0 | 3.0 | 6.0 | 0.00 | 0.02 | 0.00 | 78 | 1012.0 |
| 20260902055133 | 82 | 0 | 4.0 | 6.0 | 0.00 | 0.02 | 0.00 | 78 | 1012.0 |
| 20260902055032 | 82 | 0 | 4.0 | 6.0 | 0.00 | 0.02 | 0.00 | 79 | 1012.0 |
| 20260902054931 | 82 | 0 | 3.0 | 6.0 | 0.00 | 0.02 | 0.00 | 79 | 1011.9 |
| 20260902054832 | 82 | 0 | 4.0 | 7.0 | 0.00 | 0.02 | 0.00 | 79 | 1012.0 |
| 20260902054731 | 82 | 0 | 4.0 | 7.0 | 0.00 | 0.02 | 0.00 | 79 | 1012.0 |
| 20260902054632 | 82 | 0 | 4.0 | 7.0 | 0.00 | 0.02 | 0.00 | 79 | 1012.0 |
| 20260902054524 | 82 | 0 | 4.0 | 7.0 | 0.00 | 0.02 | 0.00 | 79 | 1011.9 |
| 20260902054419 | 82 | 0 | 4.0 | 7.0 | 0.00 | 0.02 | 0.00 | 79 | 1012.0 |
| 20260902054309 | 82 | 0 | 5.0 | 7.0 | 0.00 | 0.02 | 0.00 | 79 | 1012.0 |
| 20260902054208 | 82 | 0 | 5.0 | 7.0 | 0.00 | 0.02 | 0.00 | 79 | 1012.0 |
| 20260902054107 | 82 | 0 | 5.0 | 7.0 | 0.00 | 0.02 | 0.00 | 79 | 1012.0 |
| 20260902054003 | 82 | 0 | 5.0 | 7.0 | 0.00 | 0.02 | 0.00 | 79 | 1011.9 |
| 20260902053903 | 82 | 0 | 5.0 | 7.0 | 0.00 | 0.02 | 0.00 | 79 | 1011.9 |
| 20260902053803 | 82 | 0 | 4.0 | 7.0 | 0.00 | 0.02 | 0.00 | 79 | 1012.0 |
| 20260902053703 | 82 | 0 | 3.0 | 6.0 | 0.00 | 0.02 | 0.00 | 79 | 1011.9 |
| 20260902053603 | 82 | 0 | 4.0 | 6.0 | 0.00 | 0.02 | 0.00 | 79 | 1011.9 |
| 20260902053505 | 82 | 0 | 5.0 | 6.0 | 0.00 | 0.02 | 0.00 | 79 | 1011.9 |
| 20260902053403 | 82 | 0 | 2.0 | 5.0 | 0.00 | 0.02 | 0.00 | 79 | 1011.9 |
| 20260902053304 | 82 | 0 | 2.0 | 5.0 | 0.00 | 0.02 | 0.00 | 79 | 1012.0 |
| 20260902053203 | 82 | 0 | 4.0 | 5.0 | 0.00 | 0.02 | 0.00 | 79 | 1011.9 |
| 20260902053104 | 82 | 0 | 4.0 | 5.0 | 0.00 | 0.02 | 0.00 | 79 | 1011.9 |
| 20260902053003 | 82 | 0 | 4.0 | 5.0 | 0.00 | 0.02 | 0.00 | 79 | 1011.9 |
| 20260902052903 | 82 | 0 | 4.0 | 5.0 | 0.00 | 0.02 | 0.00 | 79 | 1011.9 |
| 20260902052804 | 82 | 0 | 4.0 | 5.0 | 0.00 | 0.02 | 0.00 | 79 | 1011.9 |
| 20260902052702 | 82 | 0 | 4.0 | 5.0 | 0.00 | 0.02 | 0.00 | 79 | 1012.0 |
| 20260902052602 | 82 | 0 | 4.0 | 5.0 | 0.00 | 0.02 | 0.00 | 79 | 1011.9 |
| 20260902052502 | 82 | 0 | 4.0 | 5.0 | 0.00 | 0.02 | 0.00 | 79 | 1011.9 |
| 20260902052402 | 82 | 0 | 4.0 | 5.0 | 0.00 | 0.02 | 0.00 | 79 | 1012.0 |
| 20260902052306 | 82 | 0 | 2.0 | 5.0 | 0.00 | 0.02 | 0.00 | 79 | 1011.9 |
| 20260902052204 | 82 | 0 | 2.0 | 5.0 | 0.00 | 0.02 | 0.00 | 79 | 1011.9 |
| 20260902052103 | 82 | 0 | 2.0 | 5.0 | 0.00 | 0.02 | 0.00 | 79 | 1012.0 |
| 20260902052004 | 82 | 0 | 2.0 | 5.0 | 0.00 | 0.02 | 0.00 | 79 | 1012.1 |
| 20260902051903 | 82 | 0 | 4.0 | 5.0 | 0.00 | 0.02 | 0.00 | 79 | 1012.1 |
| 20260902051804 | 82 | 0 | 4.0 | 5.0 | 0.00 | 0.02 | 0.00 | 79 | 1012.0 |
| 20260902051704 | 82 | 0 | 4.0 | 5.0 | 0.00 | 0.02 | 0.00 | 79 | 1012.0 |
| 20260902051603 | 82 | 0 | 4.0 | 5.0 | 0.00 | 0.02 | 0.00 | 79 | 1012.0 |
| 20260902051503 | 82 | 0 | 3.0 | 5.0 | 0.00 | 0.02 | 0.00 | 79 | 1012.0 |
| 20260902051402 | 82 | 0 | 3.0 | 5.0 | 0.00 | 0.02 | 0.00 | 79 | 1012.0 |
| 20260902051303 | 82 | 0 | 3.0 | 5.0 | 0.00 | 0.02 | 0.00 | 79 | 1012.1 |
| 20260902051203 | 82 | 0 | 2.0 | 5.0 | 0.00 | 0.02 | 0.00 | 80 | 1012.1 |
| 20260902051103 | 82 | 0 | 3.0 | 5.0 | 0.00 | 0.02 | 0.00 | 80 | 1012.0 |
| 20260902051002 | 82 | 0 | 3.0 | 5.0 | 0.00 | 0.02 | 0.00 | 80 | 1012.1 |
| 20260902050903 | 82 | 0 | 2.0 | 5.0 | 0.00 | 0.02 | 0.00 | 80 | 1012.1 |
| 20260902050802 | 82 | 0 | 2.0 | 5.0 | 0.00 | 0.02 | 0.00 | 80 | 1012.1 |
| 20260902050703 | 82 | 0 | 2.0 | 5.0 | 0.00 | 0.02 | 0.00 | 80 | 1012.2 |
| 20260902050603 | 82 | 0 | 3.0 | 5.0 | 0.00 | 0.02 | 0.00 | 80 | 1012.2 |
| 20260902050505 | 82 | 0 | 3.0 | 5.0 | 0.00 | 0.02 | 0.00 | 80 | 1012.2 |
| 20260902050404 | 82 | 0 | 4.0 | 5.0 | 0.00 | 0.02 | 0.00 | 80 | 1012.2 |
| 20260902050303 | 82 | 0 | 4.0 | 5.0 | 0.00 | 0.02 | 0.00 | 80 | 1012.2 |
| 20260902050202 | 82 | 0 | 3.0 | 5.0 | 0.00 | 0.02 | 0.00 | 80 | 1012.2 |
| 20260902050104 | 82 | 0 | 3.0 | 5.0 | 0.00 | 0.02 | 0.00 | 80 | 1012.2 |
| 20260902050006 | 82 | 0 | 4.0 | 5.0 | 0.00 | 0.02 | 0.00 | 80 | 1012.2 |
| 20260902045902 | 82 | 0 | 4.0 | 5.0 | 0.00 | 0.02 | 0.02 | 80 | 1012.2 |
| 20260902045803 | 82 | 0 | 4.0 | 5.0 | 0.00 | 0.02 | 0.02 | 80 | 1012.2 |
| 20260902045704 | 82 | 0 | 3.0 | 4.0 | 0.00 | 0.02 | 0.02 | 80 | 1012.2 |
| 20260902045604 | 82 | 0 | 3.0 | 5.0 | 0.00 | 0.02 | 0.02 | 80 | 1012.3 |
| 20260902045503 | 82 | 0 | 2.0 | 5.0 | 0.00 | 0.02 | 0.02 | 80 | 1012.3 |
| 20260902045403 | 82 | 0 | 2.0 | 5.0 | 0.00 | 0.02 | 0.02 | 80 | 1012.3 |
| 20260902045306 | 82 | 0 | 2.0 | 5.0 | 0.00 | 0.02 | 0.02 | 80 | 1012.4 |
| 20260902045203 | 82 | 0 | 2.0 | 5.0 | 0.00 | 0.02 | 0.02 | 80 | 1012.3 |
| 20260902045103 | 82 | 0 | 2.0 | 5.0 | 0.00 | 0.02 | 0.02 | 80 | 1012.3 |
| 20260902045004 | 82 | 0 | 2.0 | 5.0 | 0.00 | 0.02 | 0.02 | 80 | 1012.4 |
| 20260902044902 | 82 | 0 | 3.0 | 5.0 | 0.00 | 0.02 | 0.02 | 80 | 1012.4 |
| 20260902044802 | 82 | 0 | 3.0 | 5.0 | 0.00 | 0.02 | 0.02 | 80 | 1012.3 |
| 20260902044702 | 82 | 0 | 4.0 | 5.0 | 0.00 | 0.02 | 0.02 | 80 | 1012.3 |
| 20260902044603 | 82 | 0 | 4.0 | 5.0 | 0.00 | 0.02 | 0.02 | 80 | 1012.4 |
| 20260902044502 | 82 | 0 | 4.0 | 5.0 | 0.00 | 0.02 | 0.02 | 80 | 1012.3 |
| 20260902044403 | 82 | 0 | 4.0 | 5.0 | 0.00 | 0.02 | 0.02 | 80 | 1012.2 |
| 20260902044303 | 82 | 0 | 4.0 | 5.0 | 0.00 | 0.02 | 0.02 | 80 | 1012.3 |
| 20260902044203 | 82 | 0 | 4.0 | 5.0 | 0.00 | 0.02 | 0.02 | 80 | 1012.2 |
| 20260902044103 | 82 | 0 | 4.0 | 5.0 | 0.00 | 0.02 | 0.02 | 80 | 1012.3 |
| 20260902043958 | 82 | 0 | 3.0 | 5.0 | 0.00 | 0.02 | 0.02 | 80 | 1012.3 |
| 20260902043859 | 82 | 0 | 4.0 | 5.0 | 0.00 | 0.02 | 0.02 | 80 | 1012.4 |
| 20260902043746 | 82 | 0 | 4.0 | 5.0 | 0.00 | 0.02 | 0.02 | 80 | 1012.3 |
| 20260902043645 | 82 | 0 | 4.0 | 5.0 | 0.00 | 0.02 | 0.02 | 80 | 1012.4 |
| 20260902043544 | 82 | 0 | 4.0 | 5.0 | 0.00 | 0.02 | 0.02 | 80 | 1012.4 |
| 20260902043445 | 82 | 0 | 3.0 | 4.0 | 0.00 | 0.02 | 0.02 | 80 | 1012.4 |
| 20260902043344 | 82 | 0 | 3.0 | 4.0 | 0.00 | 0.02 | 0.02 | 80 | 1012.4 |
| 20260902043245 | 82 | 0 | 1.0 | 4.0 | 0.00 | 0.02 | 0.02 | 80 | 1012.3 |
| 20260902043145 | 82 | 0 | 0.0 | 4.0 | 0.00 | 0.02 | 0.02 | 80 | 1012.4 |
| 20260902043044 | 82 | 0 | 0.0 | 4.0 | 0.00 | 0.02 | 0.02 | 80 | 1012.4 |
| 20260902042944 | 82 | 0 | 0.0 | 4.0 | 0.00 | 0.02 | 0.02 | 80 | 1012.4 |
| 20260902042844 | 82 | 0 | 0.0 | 4.0 | 0.00 | 0.02 | 0.02 | 80 | 1012.4 |
| 20260902042746 | 82 | 0 | 1.0 | 4.0 | 0.00 | 0.02 | 0.02 | 80 | 1012.4 |
| 20260902042644 | 82 | 0 | 2.0 | 4.0 | 0.00 | 0.02 | 0.02 | 80 | 1012.4 |
| 20260902042545 | 82 | 0 | 2.0 | 4.0 | 0.00 | 0.02 | 0.02 | 80 | 1012.5 |
| 20260902042446 | 82 | 0 | 2.0 | 4.0 | 0.00 | 0.02 | 0.02 | 80 | 1012.4 |
| 20260902042346 | 82 | 0 | 2.0 | 4.0 | 0.00 | 0.02 | 0.02 | 80 | 1012.4 |
| 20260902042244 | 82 | 0 | 2.0 | 4.0 | 0.00 | 0.02 | 0.02 | 80 | 1012.4 |
| 20260902042145 | 82 | 0 | 2.0 | 4.0 | 0.00 | 0.02 | 0.02 | 81 | 1012.5 |
| 20260902042044 | 82 | 0 | 2.0 | 4.0 | 0.00 | 0.02 | 0.02 | 81 | 1012.4 |
| 20260902041945 | 82 | 0 | 2.0 | 4.0 | 0.00 | 0.02 | 0.02 | 81 | 1012.5 |
| 20260902041844 | 82 | 0 | 2.0 | 4.0 | 0.00 | 0.02 | 0.02 | 81 | 1012.4 |
| 20260902041746 | 82 | 0 | 2.0 | 4.0 | 0.00 | 0.02 | 0.02 | 81 | 1012.5 |
| 20260902041644 | 82 | 0 | 2.0 | 4.0 | 0.00 | 0.02 | 0.02 | 81 | 1012.4 |
| 20260902041544 | 82 | 0 | 3.0 | 4.0 | 0.00 | 0.02 | 0.02 | 81 | 1012.4 |
| 20260902041446 | 82 | 0 | 3.0 | 4.0 | 0.00 | 0.02 | 0.02 | 81 | 1012.5 |
| 20260902041345 | 82 | 0 | 2.0 | 5.0 | 0.00 | 0.02 | 0.02 | 81 | 1012.4 |
| 20260902041245 | 82 | 0 | 2.0 | 5.0 | 0.00 | 0.02 | 0.02 | 81 | 1012.4 |
| 20260902041144 | 82 | 0 | 3.0 | 5.0 | 0.00 | 0.02 | 0.02 | 81 | 1012.4 |
| 20260902041047 | 82 | 0 | 3.0 | 5.0 | 0.00 | 0.02 | 0.02 | 81 | 1012.4 |
| 20260902040944 | 82 | 0 | 3.0 | 5.0 | 0.00 | 0.02 | 0.02 | 81 | 1012.5 |
| 20260902040844 | 82 | 0 | 2.0 | 5.0 | 0.00 | 0.02 | 0.02 | 81 | 1012.5 |
| 20260902040744 | 82 | 0 | 2.0 | 5.0 | 0.00 | 0.02 | 0.02 | 81 | 1012.5 |
| 20260902040645 | 82 | 0 | 3.0 | 5.0 | 0.00 | 0.02 | 0.02 | 81 | 1012.5 |
| 20260902040544 | 82 | 0 | 3.0 | 5.0 | 0.00 | 0.02 | 0.02 | 81 | 1012.6 |
| 20260902040444 | 82 | 0 | 3.0 | 5.0 | 0.00 | 0.02 | 0.02 | 81 | 1012.5 |
| 20260902040346 | 82 | 0 | 2.0 | 5.0 | 0.00 | 0.02 | 0.02 | 81 | 1012.4 |
| 20260902040245 | 82 | 0 | 1.0 | 5.0 | 0.00 | 0.02 | 0.02 | 81 | 1012.5 |
| 20260902040146 | 82 | 0 | 1.0 | 5.0 | 0.00 | 0.02 | 0.02 | 81 | 1012.5 |
| 20260902040044 | 82 | 0 | 2.0 | 5.0 | 0.00 | 0.02 | 0.02 | 81 | 1012.6 |
| 20260902035946 | 82 | 0 | 3.0 | 5.0 | 0.00 | 0.02 | 0.02 | 81 | 1012.5 |
| 20260902035843 | 82 | 0 | 2.0 | 6.0 | 0.00 | 0.02 | 0.02 | 80 | 1012.5 |
| 20260902035745 | 82 | 0 | 3.0 | 6.0 | 0.00 | 0.02 | 0.02 | 80 | 1012.5 |
| 20260902035644 | 82 | 0 | 3.0 | 6.0 | 0.00 | 0.02 | 0.02 | 80 | 1012.5 |
| 20260902035543 | 82 | 0 | 3.0 | 6.0 | 0.00 | 0.02 | 0.02 | 80 | 1012.4 |
| 20260902035442 | 82 | 0 | 4.0 | 6.0 | 0.00 | 0.02 | 0.02 | 80 | 1012.5 |
| 20260902035344 | 82 | 0 | 4.0 | 6.0 | 0.00 | 0.02 | 0.02 | 80 | 1012.5 |
| 20260902035245 | 82 | 0 | 4.0 | 6.0 | 0.00 | 0.02 | 0.02 | 80 | 1012.4 |
| 20260902035143 | 82 | 0 | 4.0 | 6.0 | 0.00 | 0.02 | 0.02 | 80 | 1012.4 |
| 20260902035043 | 82 | 0 | 4.0 | 6.0 | 0.00 | 0.02 | 0.02 | 80 | 1012.4 |
| 20260902034943 | 82 | 0 | 4.0 | 6.0 | 0.00 | 0.02 | 0.02 | 80 | 1012.4 |
| 20260902034845 | 82 | 0 | 4.0 | 6.0 | 0.00 | 0.02 | 0.02 | 80 | 1012.4 |
| 20260902034744 | 82 | 0 | 4.0 | 6.0 | 0.00 | 0.02 | 0.02 | 80 | 1012.4 |
| 20260902034645 | 82 | 0 | 4.0 | 6.0 | 0.00 | 0.02 | 0.02 | 80 | 1012.5 |
| 20260902034544 | 82 | 0 | 4.0 | 6.0 | 0.00 | 0.02 | 0.02 | 80 | 1012.5 |
| 20260902034445 | 83 | 0 | 4.0 | 6.0 | 0.00 | 0.02 | 0.02 | 79 | 1012.4 |
| 20260902034343 | 83 | 0 | 4.0 | 6.0 | 0.00 | 0.02 | 0.02 | 79 | 1012.5 |
| 20260902034244 | 83 | 0 | 3.0 | 4.0 | 0.00 | 0.02 | 0.02 | 79 | 1012.4 |
| 20260902034145 | 83 | 0 | 3.0 | 3.0 | 0.00 | 0.02 | 0.02 | 79 | 1012.5 |
| 20260902034044 | 83 | 0 | 0.0 | 0.0 | 0.00 | 0.02 | 0.02 | 79 | 1012.5 |
| 20260902033945 | 83 | 0 | 0.0 | 0.0 | 0.00 | 0.02 | 0.02 | 79 | 1012.5 |
| 20260902033844 | 83 | 0 | 0.0 | 0.0 | 0.00 | 0.02 | 0.02 | 79 | 1012.4 |
| 20260902033745 | 83 | 0 | 0.0 | 0.0 | 0.00 | 0.02 | 0.02 | 79 | 1012.4 |
| 20260902033643 | 83 | 0 | 0.0 | 0.0 | 0.00 | 0.02 | 0.02 | 79 | 1012.6 |
| 20260902033546 | 83 | 0 | 0.0 | 0.0 | 0.00 | 0.02 | 0.02 | 79 | 1012.5 |
| 20260902033443 | 83 | 0 | 0.0 | 0.0 | 0.00 | 0.02 | 0.02 | 79 | 1012.5 |
| 20260902033344 | 83 | 0 | 0.0 | 0.0 | 0.00 | 0.02 | 0.02 | 79 | 1012.5 |
| 20260902033242 | 83 | 0 | 0.0 | 0.0 | 0.00 | 0.02 | 0.02 | 79 | 1012.5 |
| 20260902033143 | 83 | 0 | 0.0 | 0.0 | 0.00 | 0.02 | 0.02 | 79 | 1012.5 |
| 20260902033045 | 83 | 0 | 0.0 | 0.0 | 0.00 | 0.02 | 0.02 | 79 | 1012.5 |
| 20260902032944 | 83 | 0 | 0.0 | 0.0 | 0.00 | 0.02 | 0.02 | 79 | 1012.6 |
| 20260902032844 | 83 | 0 | 0.0 | 0.0 | 0.00 | 0.02 | 0.02 | 79 | 1012.6 |
| 20260902032742 | 83 | 0 | 0.0 | 0.0 | 0.00 | 0.02 | 0.02 | 79 | 1012.6 |
| 20260902032643 | 83 | 0 | 0.0 | 0.0 | 0.00 | 0.02 | 0.02 | 79 | 1012.6 |
| 20260902032544 | 83 | 0 | 0.0 | 0.0 | 0.00 | 0.02 | 0.02 | 79 | 1012.6 |
| 20260902032442 | 83 | 0 | 0.0 | 2.0 | 0.00 | 0.02 | 0.02 | 79 | 1012.6 |
| 20260902032344 | 83 | 0 | 0.0 | 2.0 | 0.00 | 0.02 | 0.02 | 79 | 1012.6 |
| 20260902032244 | 83 | 0 | 0.0 | 3.0 | 0.00 | 0.02 | 0.02 | 79 | 1012.6 |
| 20260902032143 | 83 | 0 | 0.0 | 3.0 | 0.00 | 0.02 | 0.02 | 79 | 1012.6 |
| 20260902032045 | 83 | 0 | 0.0 | 3.0 | 0.00 | 0.02 | 0.02 | 79 | 1012.5 |
| 20260902031942 | 83 | 0 | 0.0 | 3.0 | 0.00 | 0.02 | 0.02 | 79 | 1012.5 |
| 20260902031845 | 83 | 0 | 0.0 | 3.0 | 0.00 | 0.02 | 0.02 | 79 | 1012.5 |
| 20260902031744 | 83 | 0 | 0.0 | 3.0 | 0.00 | 0.02 | 0.02 | 79 | 1012.5 |
| 20260902031644 | 83 | 0 | 1.0 | 3.0 | 0.00 | 0.02 | 0.02 | 79 | 1012.5 |
| 20260902031542 | 83 | 0 | 1.0 | 3.0 | 0.00 | 0.02 | 0.02 | 79 | 1012.5 |
| 20260902031443 | 83 | 0 | 1.0 | 3.0 | 0.00 | 0.02 | 0.02 | 79 | 1012.5 |
| 20260902031342 | 83 | 0 | 1.0 | 3.0 | 0.00 | 0.02 | 0.02 | 79 | 1012.5 |
| 20260902031244 | 83 | 0 | 0.0 | 0.0 | 0.00 | 0.02 | 0.02 | 79 | 1012.5 |
| 20260902031145 | 83 | 0 | 0.0 | 0.0 | 0.00 | 0.02 | 0.02 | 79 | 1012.4 |
| 20260902031042 | 83 | 0 | 0.0 | 0.0 | 0.00 | 0.02 | 0.02 | 79 | 1012.5 |
| 20260902030943 | 83 | 0 | 0.0 | 0.0 | 0.00 | 0.02 | 0.02 | 79 | 1012.4 |
| 20260902030842 | 83 | 0 | 0.0 | 0.0 | 0.00 | 0.02 | 0.02 | 79 | 1012.4 |
| 20260902030744 | 83 | 0 | 0.0 | 0.0 | 0.00 | 0.02 | 0.02 | 79 | 1012.4 |
| 20260902030643 | 83 | 0 | 0.0 | 0.0 | 0.00 | 0.02 | 0.02 | 79 | 1012.4 |
| 20260902030544 | 83 | 0 | 0.0 | 0.0 | 0.00 | 0.02 | 0.02 | 79 | 1012.3 |
| 20260902030443 | 83 | 0 | 0.0 | 0.0 | 0.00 | 0.02 | 0.02 | 79 | 1012.4 |
| 20260902030343 | 83 | 0 | 0.0 | 0.0 | 0.00 | 0.02 | 0.02 | 79 | 1012.3 |
| 20260902030242 | 83 | 0 | 0.0 | 0.0 | 0.00 | 0.02 | 0.02 | 79 | 1012.3 |
| 20260902030143 | 83 | 0 | 0.0 | 0.0 | 0.00 | 0.02 | 0.02 | 79 | 1012.3 |
| 20260902030043 | 83 | 0 | 0.0 | 0.0 | 0.00 | 0.02 | 0.02 | 79 | 1012.3 |
| 20260902025943 | 83 | 0 | 0.0 | 0.0 | 0.00 | 0.02 | 0.02 | 80 | 1012.3 |
| 20260902025844 | 83 | 0 | 0.0 | 0.0 | 0.00 | 0.02 | 0.02 | 80 | 1012.3 |
| 20260902025744 | 83 | 0 | 0.0 | 0.0 | 0.00 | 0.02 | 0.02 | 80 | 1012.3 |
| 20260902025643 | 83 | 0 | 0.0 | 0.0 | 0.00 | 0.02 | 0.02 | 80 | 1012.2 |
| 20260902025542 | 83 | 0 | 0.0 | 0.0 | 0.00 | 0.02 | 0.02 | 80 | 1012.2 |
| 20260902025441 | 83 | 0 | 0.0 | 4.0 | 0.00 | 0.02 | 0.02 | 80 | 1012.2 |
| 20260902025342 | 83 | 0 | 0.0 | 4.0 | 0.00 | 0.02 | 0.02 | 80 | 1012.1 |
| 20260902025242 | 83 | 0 | 0.0 | 4.0 | 0.00 | 0.02 | 0.02 | 80 | 1012.1 |
| 20260902025143 | 83 | 0 | 0.0 | 4.0 | 0.00 | 0.02 | 0.02 | 80 | 1012.1 |
| 20260902025041 | 83 | 0 | 0.0 | 4.0 | 0.00 | 0.02 | 0.02 | 80 | 1012.1 |
| 20260902024942 | 83 | 0 | 0.0 | 4.0 | 0.00 | 0.02 | 0.02 | 80 | 1012.1 |
| 20260902024841 | 83 | 0 | 3.0 | 4.0 | 0.00 | 0.02 | 0.02 | 79 | 1012.1 |
| 20260902024742 | 83 | 0 | 3.0 | 4.0 | 0.00 | 0.02 | 0.02 | 79 | 1012.0 |
| 20260902024642 | 83 | 0 | 3.0 | 4.0 | 0.00 | 0.02 | 0.02 | 79 | 1012.1 |
| 20260902024543 | 83 | 0 | 3.0 | 4.0 | 0.00 | 0.02 | 0.02 | 79 | 1012.0 |
| 20260902024442 | 83 | 0 | 3.0 | 4.0 | 0.00 | 0.02 | 0.02 | 79 | 1011.9 |
| 20260902024341 | 83 | 0 | 2.0 | 4.0 | 0.00 | 0.02 | 0.02 | 79 | 1011.9 |
| 20260902024240 | 83 | 0 | 2.0 | 4.0 | 0.00 | 0.02 | 0.02 | 79 | 1011.9 |
| 20260902024140 | 83 | 0 | 2.0 | 4.0 | 0.00 | 0.02 | 0.02 | 79 | 1011.9 |
| 20260902024040 | 83 | 0 | 2.0 | 4.0 | 0.00 | 0.02 | 0.02 | 79 | 1011.9 |
| 20260902023942 | 83 | 0 | 2.0 | 4.0 | 0.00 | 0.02 | 0.02 | 79 | 1011.9 |
| 20260902023841 | 83 | 0 | 2.0 | 4.0 | 0.00 | 0.02 | 0.02 | 79 | 1011.9 |
| 20260902023742 | 83 | 0 | 2.0 | 4.0 | 0.00 | 0.02 | 0.02 | 79 | 1011.9 |
| 20260902023640 | 83 | 0 | 2.0 | 4.0 | 0.00 | 0.02 | 0.02 | 79 | 1011.8 |
| 20260902023542 | 83 | 0 | 0.0 | 0.0 | 0.00 | 0.02 | 0.02 | 79 | 1012.0 |
| 20260902023442 | 83 | 0 | 0.0 | 0.0 | 0.00 | 0.02 | 0.02 | 79 | 1011.9 |
| 20260902023339 | 83 | 0 | 0.0 | 0.0 | 0.00 | 0.02 | 0.02 | 79 | 1011.9 |
| 20260902023242 | 83 | 0 | 0.0 | 0.0 | 0.00 | 0.02 | 0.02 | 79 | 1011.9 |
| 20260902023141 | 83 | 0 | 0.0 | 0.0 | 0.00 | 0.02 | 0.02 | 79 | 1012.0 |
| 20260902023039 | 83 | 0 | 0.0 | 0.0 | 0.00 | 0.02 | 0.02 | 79 | 1011.9 |
| 20260902022940 | 83 | 0 | 0.0 | 0.0 | 0.00 | 0.02 | 0.02 | 79 | 1011.9 |
| 20260902022841 | 83 | 0 | 0.0 | 2.0 | 0.00 | 0.02 | 0.02 | 79 | 1011.9 |
| 20260902022739 | 83 | 0 | 0.0 | 3.0 | 0.00 | 0.02 | 0.02 | 79 | 1011.9 |
| 20260902022641 | 83 | 0 | 0.0 | 4.0 | 0.00 | 0.02 | 0.02 | 79 | 1011.8 |
| 20260902022541 | 83 | 0 | 0.0 | 4.0 | 0.00 | 0.02 | 0.02 | 79 | 1011.8 |
| 20260902022440 | 83 | 0 | 0.0 | 4.0 | 0.00 | 0.02 | 0.02 | 79 | 1011.9 |
| 20260902022339 | 83 | 0 | 0.0 | 4.0 | 0.00 | 0.02 | 0.02 | 79 | 1011.8 |
| 20260902022239 | 83 | 0 | 0.0 | 4.0 | 0.00 | 0.02 | 0.02 | 80 | 1011.8 |
| 20260902022140 | 83 | 0 | 0.0 | 4.0 | 0.00 | 0.02 | 0.02 | 79 | 1011.8 |
| 20260902022040 | 83 | 0 | 0.0 | 4.0 | 0.00 | 0.02 | 0.02 | 79 | 1011.8 |
| 20260902021940 | 83 | 0 | 1.0 | 4.0 | 0.00 | 0.02 | 0.02 | 79 | 1011.7 |
| 20260902021840 | 83 | 0 | 2.0 | 4.0 | 0.00 | 0.02 | 0.02 | 79 | 1011.7 |
| 20260902021739 | 83 | 0 | 2.0 | 4.0 | 0.00 | 0.02 | 0.02 | 79 | 1011.7 |
| 20260902021640 | 83 | 0 | 1.0 | 4.0 | 0.00 | 0.02 | 0.02 | 79 | 1011.7 |
| 20260902021539 | 83 | 0 | 0.0 | 4.0 | 0.00 | 0.02 | 0.02 | 79 | 1011.6 |
| 20260902021439 | 83 | 0 | 1.0 | 4.0 | 0.00 | 0.02 | 0.02 | 79 | 1011.6 |
| 20260902021339 | 83 | 0 | 2.0 | 4.0 | 0.00 | 0.02 | 0.02 | 79 | 1011.5 |
| 20260902021242 | 83 | 0 | 2.0 | 4.0 | 0.00 | 0.02 | 0.02 | 79 | 1011.5 |
| 20260902021139 | 83 | 0 | 2.0 | 4.0 | 0.00 | 0.02 | 0.02 | 79 | 1011.5 |
| 20260902021040 | 83 | 0 | 2.0 | 4.0 | 0.00 | 0.02 | 0.02 | 79 | 1011.5 |
| 20260902020940 | 83 | 0 | 2.0 | 4.0 | 0.00 | 0.02 | 0.02 | 79 | 1011.4 |
| 20260902020840 | 83 | 0 | 3.0 | 4.0 | 0.00 | 0.02 | 0.02 | 79 | 1011.5 |
| 20260902020739 | 83 | 0 | 2.0 | 4.0 | 0.00 | 0.02 | 0.02 | 80 | 1011.5 |
| 20260902020639 | 83 | 0 | 0.0 | 2.0 | 0.00 | 0.02 | 0.02 | 79 | 1011.5 |
| 20260902020541 | 83 | 0 | 0.0 | 0.0 | 0.00 | 0.02 | 0.02 | 79 | 1011.6 |
| 20260902020439 | 83 | 0 | 0.0 | 0.0 | 0.00 | 0.02 | 0.02 | 79 | 1011.5 |
| 20260902020340 | 83 | 0 | 0.0 | 0.0 | 0.00 | 0.02 | 0.02 | 79 | 1011.5 |
| 20260902020240 | 83 | 0 | 0.0 | 0.0 | 0.00 | 0.02 | 0.02 | 80 | 1011.5 |
| 20260902020141 | 83 | 0 | 0.0 | 0.0 | 0.00 | 0.02 | 0.02 | 80 | 1011.5 |
| 20260902020040 | 83 | 0 | 0.0 | 0.0 | 0.00 | 0.02 | 0.02 | 80 | 1011.6 |
| 20260902015941 | 83 | 0 | 0.0 | 0.0 | 0.00 | 0.02 | 0.02 | 80 | 1011.6 |
| 20260902015839 | 82 | 0 | 0.0 | 0.0 | 0.00 | 0.02 | 0.02 | 80 | 1011.5 |
| 20260902015740 | 83 | 0 | 0.0 | 0.0 | 0.00 | 0.02 | 0.02 | 80 | 1011.5 |
| 20260902015638 | 82 | 0 | 0.0 | 0.0 | 0.00 | 0.02 | 0.02 | 80 | 1011.5 |
| 20260902015540 | 82 | 0 | 0.0 | 0.0 | 0.00 | 0.02 | 0.02 | 80 | 1011.5 |
| 20260902015440 | 82 | 0 | 0.0 | 2.0 | 0.00 | 0.02 | 0.02 | 80 | 1011.4 |
| 20260902015341 | 82 | 0 | 0.0 | 2.0 | 0.00 | 0.02 | 0.02 | 80 | 1011.4 |
| 20260902015239 | 82 | 0 | 0.0 | 2.0 | 0.00 | 0.02 | 0.02 | 80 | 1011.4 |
| 20260902015139 | 82 | 0 | 0.0 | 2.0 | 0.00 | 0.02 | 0.02 | 80 | 1011.4 |
| 20260902015041 | 82 | 0 | 0.0 | 2.0 | 0.00 | 0.02 | 0.02 | 80 | 1011.4 |
| 20260902014938 | 82 | 0 | 0.0 | 2.0 | 0.00 | 0.02 | 0.02 | 80 | 1011.3 |
| 20260902014840 | 82 | 0 | 0.0 | 2.0 | 0.00 | 0.02 | 0.02 | 80 | 1011.3 |
| 20260902014740 | 82 | 0 | 0.0 | 2.0 | 0.00 | 0.02 | 0.02 | 80 | 1011.3 |
| 20260902014639 | 82 | 0 | 0.0 | 4.0 | 0.00 | 0.02 | 0.02 | 80 | 1011.3 |
| 20260902014541 | 82 | 0 | 1.0 | 4.0 | 0.00 | 0.02 | 0.02 | 80 | 1011.3 |
| 20260902014439 | 82 | 0 | 2.0 | 4.0 | 0.00 | 0.02 | 0.02 | 80 | 1011.3 |
| 20260902014346 | 82 | 0 | 0.0 | 4.0 | 0.00 | 0.02 | 0.02 | 80 | 1011.3 |
| 20260902014232 | 82 | 0 | 0.0 | 4.0 | 0.00 | 0.02 | 0.02 | 80 | 1011.3 |
| 20260902014132 | 82 | 0 | 0.0 | 4.0 | 0.00 | 0.02 | 0.02 | 80 | 1011.2 |
| 20260902014032 | 82 | 0 | 0.0 | 4.0 | 0.00 | 0.02 | 0.02 | 80 | 1011.2 |
| 20260902013931 | 82 | 0 | 1.0 | 4.0 | 0.00 | 0.02 | 0.02 | 80 | 1011.2 |
| 20260902013832 | 82 | 0 | 2.0 | 4.0 | 0.00 | 0.02 | 0.02 | 80 | 1011.3 |
| 20260902013732 | 82 | 0 | 2.0 | 4.0 | 0.00 | 0.02 | 0.02 | 80 | 1011.1 |
| 20260902013632 | 82 | 0 | 1.0 | 3.0 | 0.00 | 0.02 | 0.02 | 80 | 1011.1 |
| 20260902013532 | 82 | 0 | 1.0 | 3.0 | 0.00 | 0.02 | 0.02 | 80 | 1011.1 |
| 20260902013431 | 82 | 0 | 1.0 | 3.0 | 0.00 | 0.02 | 0.02 | 80 | 1011.1 |
| 20260902013330 | 82 | 0 | 0.0 | 3.0 | 0.00 | 0.02 | 0.02 | 80 | 1011.1 |
| 20260902013232 | 82 | 0 | 0.0 | 3.0 | 0.00 | 0.02 | 0.02 | 80 | 1011.1 |
| 20260902013132 | 82 | 0 | 1.0 | 3.0 | 0.00 | 0.02 | 0.02 | 80 | 1011.1 |
| 20260902013033 | 82 | 0 | 1.0 | 3.0 | 0.00 | 0.02 | 0.02 | 80 | 1011.1 |
| 20260902012932 | 82 | 0 | 2.0 | 3.0 | 0.00 | 0.02 | 0.02 | 80 | 1011.1 |
| 20260902012832 | 82 | 0 | 1.0 | 3.0 | 0.00 | 0.02 | 0.02 | 80 | 1011.1 |
| 20260902012731 | 82 | 0 | 0.0 | 3.0 | 0.00 | 0.02 | 0.02 | 80 | 1011.1 |
| 20260902012631 | 82 | 0 | 0.0 | 3.0 | 0.00 | 0.02 | 0.02 | 80 | 1011.1 |
| 20260902012533 | 82 | 0 | 1.0 | 3.0 | 0.00 | 0.02 | 0.02 | 80 | 1011.0 |
| 20260902012432 | 82 | 0 | 1.0 | 3.0 | 0.00 | 0.02 | 0.02 | 80 | 1011.0 |
| 20260902012332 | 82 | 0 | 1.0 | 3.0 | 0.00 | 0.02 | 0.02 | 80 | 1011.1 |
| 20260902012211 | 82 | 0 | 1.0 | 3.0 | 0.00 | 0.02 | 0.02 | 80 | 1011.0 |
| 20260902012107 | 82 | 0 | 1.0 | 2.0 | 0.00 | 0.02 | 0.02 | 80 | 1011.0 |
| 20260902012008 | 82 | 0 | 1.0 | 2.0 | 0.00 | 0.02 | 0.02 | 80 | 1011.0 |
| 20260902011906 | 82 | 0 | 1.0 | 2.0 | 0.00 | 0.02 | 0.02 | 80 | 1010.9 |
| 20260902011803 | 82 | 0 | 1.0 | 2.0 | 0.00 | 0.02 | 0.02 | 80 | 1010.9 |
| 20260902011702 | 82 | 0 | 0.0 | 0.0 | 0.00 | 0.02 | 0.02 | 80 | 1011.0 |
| 20260902011602 | 82 | 0 | 0.0 | 0.0 | 0.00 | 0.02 | 0.02 | 80 | 1010.9 |
| 20260902011503 | 82 | 0 | 0.0 | 0.0 | 0.00 | 0.02 | 0.02 | 80 | 1010.9 |
| 20260902011402 | 82 | 0 | 0.0 | 0.0 | 0.00 | 0.02 | 0.02 | 80 | 1011.0 |
| 20260902011304 | 82 | 0 | 0.0 | 0.0 | 0.00 | 0.02 | 0.02 | 81 | 1011.0 |
| 20260902011203 | 82 | 0 | 0.0 | 0.0 | 0.00 | 0.02 | 0.02 | 81 | 1010.9 |
| 20260902011104 | 82 | 0 | 0.0 | 0.0 | 0.00 | 0.02 | 0.02 | 81 | 1011.0 |
| 20260902011003 | 82 | 0 | 0.0 | 0.0 | 0.00 | 0.02 | 0.02 | 81 | 1011.0 |
| 20260902010904 | 82 | 0 | 0.0 | 0.0 | 0.00 | 0.02 | 0.02 | 81 | 1011.0 |
| 20260902010802 | 82 | 0 | 0.0 | 0.0 | 0.00 | 0.02 | 0.02 | 81 | 1011.0 |
| 20260902010656 | 82 | 0 | 0.0 | 0.0 | 0.00 | 0.02 | 0.02 | 81 | 1011.0 |
| 20260902010555 | 82 | 0 | 0.0 | 0.0 | 0.00 | 0.02 | 0.02 | 81 | 1011.0 |
| 20260902010452 | 82 | 0 | 0.0 | 0.0 | 0.00 | 0.02 | 0.02 | 81 | 1011.0 |
| 20260902010351 | 82 | 0 | 0.0 | 0.0 | 0.00 | 0.02 | 0.02 | 81 | 1011.0 |
| 20260902010246 | 82 | 0 | 0.0 | 0.0 | 0.00 | 0.02 | 0.02 | 81 | 1011.0 |
| 20260902010143 | 82 | 0 | 0.0 | 0.0 | 0.00 | 0.02 | 0.02 | 81 | 1011.0 |
| 20260902010042 | 82 | 0 | 0.0 | 0.0 | 0.00 | 0.02 | 0.02 | 81 | 1011.0 |
| 20260902005943 | 82 | 0 | 0.0 | 0.0 | 0.00 | 0.02 | 0.02 | 81 | 1011.0 |
| 20260902005840 | 82 | 0 | 0.0 | 0.0 | 0.00 | 0.02 | 0.02 | 81 | 1010.9 |
| 20260902005738 | 82 | 0 | 0.0 | 0.0 | 0.00 | 0.02 | 0.02 | 81 | 1011.0 |
| 20260902005638 | 82 | 0 | 0.0 | 0.0 | 0.00 | 0.02 | 0.02 | 81 | 1011.0 |
| 20260902005537 | 82 | 0 | 0.0 | 0.0 | 0.00 | 0.02 | 0.02 | 81 | 1011.0 |
| 20260902005439 | 82 | 0 | 0.0 | 0.0 | 0.00 | 0.02 | 0.02 | 81 | 1011.0 |
| 20260902005337 | 82 | 0 | 0.0 | 0.0 | 0.00 | 0.02 | 0.02 | 81 | 1011.0 |
| 20260902005239 | 82 | 0 | 0.0 | 0.0 | 0.00 | 0.02 | 0.02 | 81 | 1011.0 |
| 20260902005139 | 0 | 0 | 0.0 | 0.0 | 0.00 | 0.02 | 0.02 | 1011.0 | |
| 20260902005038 | 0 | 0.0 | 0.0 | 0.00 | 0.02 | 0.02 | 1011.0 | ||
| 20260902004932 | 0 | 0.0 | 0.0 | 0.00 | 0.02 | 0.02 | 1010.9 | ||
| 20260902004832 | 0 | 0.0 | 0.0 | 0.00 | 0.02 | 0.02 | 1011.1 | ||
| 20260902004731 | 0 | 0.0 | 0.0 | 0.00 | 0.02 | 0.02 | 1011.1 | ||
| 20260902004632 | 0 | 0.0 | 0.0 | 0.00 | 0.02 | 0.02 | 1011.1 | ||
| 20260902004532 | 0 | 0.0 | 0.0 | 0.00 | 0.02 | 0.02 | 1011.1 | ||
| 20260902004432 | 0 | 0.0 | 0.0 | 0.00 | 0.02 | 0.02 | 1011.1 | ||
| 20260902004333 | 0 | 0.0 | 0.0 | 0.00 | 0.02 | 0.02 | 1011.1 | ||
| 20260902004233 | 82 | 0 | 0.0 | 0.0 | 0.00 | 0.02 | 0.02 | 81 | 1011.1 |
| 20260902004133 | 82 | 0 | 0.0 | 0.0 | 0.00 | 0.02 | 0.02 | 81 | 1011.1 |
| 20260902004031 | 82 | 0 | 0.0 | 0.0 | 0.00 | 0.02 | 0.02 | 81 | 1011.1 |
| 20260902003932 | 82 | 0 | 0.0 | 0.0 | 0.00 | 0.02 | 0.02 | 81 | 1011.1 |
| 20260902003832 | 82 | 0 | 0.0 | 0.0 | 0.00 | 0.02 | 0.02 | 81 | 1011.2 |
| 20260902003732 | 82 | 0 | 0.0 | 0.0 | 0.00 | 0.02 | 0.02 | 81 | 1011.2 |
| 20260902003605 | 82 | 0 | 0.0 | 0.0 | 0.00 | 0.02 | 0.02 | 81 | 1011.2 |
| 20260902003504 | 82 | 0 | 0.0 | 0.0 | 0.00 | 0.02 | 0.02 | 81 | 1011.2 |
| 20260902003404 | 82 | 0 | 0.0 | 0.0 | 0.00 | 0.02 | 0.02 | 81 | 1011.1 |
| 20260902003303 | 82 | 0 | 0.0 | 2.0 | 0.00 | 0.02 | 0.02 | 81 | 1011.2 |
| 20260902003202 | 82 | 0 | 0.0 | 2.0 | 0.00 | 0.02 | 0.02 | 81 | 1011.2 |
| 20260902003104 | 82 | 0 | 0.0 | 2.0 | 0.00 | 0.02 | 0.02 | 82 | 1011.2 |
| 20260902003002 | 82 | 0 | 0.0 | 2.0 | 0.00 | 0.02 | 0.02 | 82 | 1011.2 |
| 20260902002901 | 82 | 0 | 0.0 | 2.0 | 0.00 | 0.02 | 0.02 | 81 | 1011.2 |
| 20260902002803 | 82 | 0 | 0.0 | 2.0 | 0.00 | 0.02 | 0.02 | 82 | 1011.2 |
| 20260902002703 | 82 | 0 | 0.0 | 2.0 | 0.00 | 0.02 | 0.02 | 82 | 1011.2 |
| 20260902002603 | 82 | 0 | 0.0 | 2.0 | 0.00 | 0.02 | 0.02 | 82 | 1011.2 |
| 20260902002504 | 82 | 0 | 0.0 | 2.0 | 0.00 | 0.02 | 0.02 | 82 | 1011.2 |
| 20260902002403 | 82 | 0 | 1.0 | 2.0 | 0.00 | 0.02 | 0.02 | 82 | 1011.2 |
| 20260902002306 | 82 | 0 | 1.0 | 3.0 | 0.00 | 0.02 | 0.02 | 82 | 1011.2 |
| 20260902002203 | 82 | 0 | 0.0 | 3.0 | 0.00 | 0.02 | 0.02 | 82 | 1011.2 |
| 20260902002100 | 82 | 0 | 0.0 | 3.0 | 0.00 | 0.02 | 0.02 | 82 | 1011.2 |
| 20260902001959 | 82 | 0 | 0.0 | 3.0 | 0.00 | 0.02 | 0.02 | 82 | 1011.2 |
| 20260902001856 | 82 | 0 | 0.0 | 3.0 | 0.00 | 0.02 | 0.02 | 82 | 1011.3 |
| 20260902001758 | 82 | 0 | 0.0 | 3.0 | 0.00 | 0.02 | 0.02 | 82 | 1011.3 |
| 20260902001655 | 82 | 0 | 0.0 | 3.0 | 0.00 | 0.02 | 0.02 | 82 | 1011.2 |
| 20260902001556 | 82 | 0 | 0.0 | 3.0 | 0.00 | 0.02 | 0.02 | 82 | 1011.3 |
| 20260902001438 | 82 | 0 | 0.0 | 3.0 | 0.00 | 0.02 | 0.02 | 82 | 1011.2 |
| 20260902001336 | 82 | 0 | 0.0 | 3.0 | 0.00 | 0.02 | 0.02 | 82 | 1011.2 |
| 20260902001236 | 82 | 0 | 0.0 | 0.0 | 0.00 | 0.02 | 0.02 | 82 | 1011.2 |
| 20260902001135 | 82 | 0 | 0.0 | 0.0 | 0.00 | 0.02 | 0.02 | 82 | 1011.2 |
| 20260902001036 | 82 | 0 | 0.0 | 0.0 | 0.00 | 0.02 | 0.02 | 82 | 1011.2 |
| 20260902000935 | 82 | 0 | 0.0 | 0.0 | 0.00 | 0.02 | 0.02 | 82 | 1011.3 |
| 20260902000833 | 82 | 0 | 0.0 | 0.0 | 0.00 | 0.02 | 0.02 | 82 | 1011.2 |
| 20260902000732 | 0 | 0.0 | 0.0 | 0.00 | 0.02 | 0.02 | 1011.2 | ||
| 20260902000636 | 0 | 0.0 | 0.0 | 0.00 | 0.02 | 0.02 | 1011.2 | ||
| 20260902000531 | 82 | 0 | 0.0 | 3.0 | 0.00 | 0.02 | 0.02 | 1011.1 | |
| 20260902000430 | 82 | 0 | 0.0 | 3.0 | 0.00 | 0.02 | 0.02 | 82 | 1011.2 |
| 20260902000331 | 82 | 0 | 0.0 | 3.0 | 0.00 | 0.02 | 0.02 | 82 | 1011.2 |
| 20260902000230 | 82 | 0 | 0.0 | 4.0 | 0.00 | 0.02 | 0.02 | 82 | 1011.1 |
| 20260902000129 | 82 | 0 | 0.0 | 4.0 | 0.00 | 0.02 | 0.02 | 82 | 1011.1 |
| 20260902000030 | 82 | 0 | 0.0 | 4.0 | 0.00 | 0.02 | 0.02 | 82 | 1011.1 |
| 20260901235928 | 82 | 0 | 0.0 | 4.0 | 0.00 | 0.02 | 0.02 | 82 | 1011.1 |
| 20260901235829 | 82 | 0 | 0.0 | 4.0 | 0.00 | 0.02 | 0.02 | 82 | 1011.1 |
| 20260901235729 | 82 | 0 | 0.0 | 4.0 | 0.00 | 0.02 | 0.02 | 82 | 1011.2 |
| 20260901235629 | 82 | 0 | 0.0 | 4.0 | 0.00 | 0.02 | 0.02 | 82 | 1011.1 |
| 20260901235512 | 82 | 0 | 0.0 | 4.0 | 0.00 | 0.02 | 0.02 | 82 | 1011.1 |
| 20260901235411 | 82 | 0 | 1.0 | 4.0 | 0.00 | 0.02 | 0.02 | 82 | 1011.1 |
| 20260901235310 | 82 | 0 | 1.0 | 4.0 | 0.00 | 0.02 | 0.02 | 82 | 1011.1 |
| 20260901235208 | 82 | 0 | 1.0 | 3.0 | 0.00 | 0.02 | 0.02 | 82 | 1011.2 |
| 20260901235107 | 82 | 0 | 1.0 | 3.0 | 0.01 | 0.02 | 0.02 | 83 | 1011.1 |
| 20260901235004 | 82 | 0 | 0.0 | 3.0 | 0.01 | 0.02 | 0.02 | 83 | 1011.1 |
| 20260901234905 | 82 | 0 | 1.0 | 3.0 | 0.01 | 0.02 | 0.02 | 83 | 1011.2 |
| 20260901234803 | 82 | 0 | 1.0 | 3.0 | 0.01 | 0.02 | 0.02 | 83 | 1011.2 |
| 20260901234703 | 82 | 0 | 2.0 | 3.0 | 0.01 | 0.02 | 0.02 | 83 | 1011.2 |
| 20260901234602 | 82 | 0 | 1.0 | 3.0 | 0.01 | 0.02 | 0.02 | 84 | 1011.2 |
| 20260901234505 | 83 | 0 | 1.0 | 4.0 | 0.01 | 0.02 | 0.02 | 84 | 1011.2 |
| 20260901234402 | 83 | 0 | 1.0 | 4.0 | 0.01 | 0.02 | 0.02 | 84 | 1011.2 |
| 20260901234303 | 83 | 0 | 0.0 | 4.0 | 0.01 | 0.02 | 0.02 | 84 | 1011.2 |
| 20260901234205 | 83 | 0 | 1.0 | 4.0 | 0.01 | 0.02 | 0.02 | 84 | 1011.2 |
| 20260901234103 | 83 | 0 | 0.0 | 4.0 | 0.01 | 0.02 | 0.02 | 84 | 1011.2 |
| 20260901234004 | 83 | 0 | 0.0 | 4.0 | 0.01 | 0.02 | 0.02 | 84 | 1011.2 |
| 20260901233903 | 83 | 0 | 0.0 | 4.0 | 0.01 | 0.02 | 0.02 | 84 | 1011.2 |
| 20260901233803 | 83 | 0 | 0.0 | 4.0 | 0.01 | 0.02 | 0.02 | 84 | 1011.3 |
| 20260901233702 | 83 | 0 | 0.0 | 4.0 | 0.01 | 0.02 | 0.02 | 84 | 1011.3 |
| 20260901233602 | 83 | 0 | 0.0 | 4.0 | 0.01 | 0.02 | 0.02 | 84 | 1011.3 |
| 20260901233503 | 83 | 0 | 0.0 | 0.0 | 0.01 | 0.02 | 0.02 | 85 | 1011.3 |
| 20260901233403 | 83 | 0 | 0.0 | 0.0 | 0.01 | 0.02 | 0.02 | 85 | 1011.3 |
| 20260901233258 | 83 | 0 | 0.0 | 0.0 | 0.01 | 0.02 | 0.02 | 85 | 1011.3 |
| 20260901233152 | 83 | 0 | 0.0 | 0.0 | 0.01 | 0.02 | 0.02 | 85 | 1011.3 |
| 20260901233052 | 83 | 0 | 0.0 | 0.0 | 0.01 | 0.02 | 0.02 | 85 | 1011.3 |
| 20260901232951 | 82 | 0 | 0.0 | 0.0 | 0.01 | 0.02 | 0.02 | 85 | 1011.3 |
| 20260901232835 | 82 | 0 | 0.0 | 0.0 | 0.01 | 0.02 | 0.02 | 85 | 1011.3 |
| 20260901232732 | 82 | 0 | 0.0 | 0.0 | 0.01 | 0.02 | 0.02 | 85 | 1011.3 |
| 20260901232631 | 82 | 0 | 0.0 | 0.0 | 0.01 | 0.02 | 0.02 | 85 | 1011.3 |
| 20260901232531 | 82 | 0 | 0.0 | 0.0 | 0.01 | 0.02 | 0.02 | 85 | 1011.3 |
| 20260901232432 | 82 | 0 | 0.0 | 0.0 | 0.01 | 0.02 | 0.02 | 85 | 1011.3 |
| 20260901232333 | 82 | 0 | 0.0 | 0.0 | 0.01 | 0.02 | 0.02 | 85 | 1011.3 |
| 20260901232232 | 82 | 0 | 0.0 | 0.0 | 0.01 | 0.02 | 0.02 | 85 | 1011.4 |
| 20260901232130 | 82 | 0 | 0.0 | 0.0 | 0.01 | 0.02 | 0.02 | 85 | 1011.3 |
| 20260901232030 | 82 | 0 | 0.0 | 0.0 | 0.01 | 0.02 | 0.02 | 85 | 1011.3 |
| 20260901231928 | 82 | 0 | 0.0 | 0.0 | 0.01 | 0.02 | 0.02 | 84 | 1011.3 |
| 20260901231827 | 82 | 0 | 0.0 | 0.0 | 0.01 | 0.02 | 0.02 | 84 | 1011.3 |
| 20260901231727 | 82 | 0 | 0.0 | 0.0 | 0.01 | 0.02 | 0.02 | 84 | 1011.3 |
| 20260901231628 | 82 | 0 | 0.0 | 3.0 | 0.01 | 0.02 | 0.02 | 84 | 1011.3 |
| 20260901231526 | 82 | 0 | 0.0 | 3.0 | 0.01 | 0.02 | 0.02 | 84 | 1011.4 |
| 20260901231404 | 82 | 0 | 0.0 | 6.0 | 0.01 | 0.02 | 0.02 | 84 | 1011.5 |
| 20260901231304 | 82 | 0 | 0.0 | 6.0 | 0.01 | 0.02 | 0.02 | 84 | 1011.5 |
| 20260901231202 | 82 | 0 | 0.0 | 6.0 | 0.01 | 0.02 | 0.02 | 84 | 1011.4 |
| 20260901231103 | 82 | 0 | 0.0 | 6.0 | 0.01 | 0.02 | 0.02 | 84 | 1011.5 |
| 20260901231003 | 82 | 0 | 0.0 | 6.0 | 0.01 | 0.02 | 0.02 | 84 | 1011.5 |
| 20260901230903 | 82 | 0 | 0.0 | 6.0 | 0.01 | 0.02 | 0.02 | 84 | 1011.5 |
| 20260901230802 | 82 | 0 | 1.0 | 6.0 | 0.01 | 0.02 | 0.02 | 84 | 1011.5 |
| 20260901230703 | 82 | 0 | 2.0 | 6.0 | 0.01 | 0.02 | 0.02 | 84 | 1011.5 |
| 20260901230603 | 82 | 0 | 3.0 | 6.0 | 0.01 | 0.02 | 0.02 | 84 | 1011.6 |
| 20260901230502 | 82 | 0 | 3.0 | 6.0 | 0.01 | 0.02 | 0.02 | 84 | 1011.6 |
| 20260901230402 | 82 | 0 | 3.0 | 5.0 | 0.01 | 0.02 | 0.02 | 84 | 1011.6 |
| 20260901230303 | 82 | 0 | 3.0 | 6.0 | 0.01 | 0.02 | 0.02 | 84 | 1011.6 |
| 20260901230203 | 82 | 0 | 2.0 | 6.0 | 0.02 | 0.02 | 0.02 | 84 | 1011.6 |
| 20260901230104 | 82 | 0 | 2.0 | 6.0 | 0.02 | 0.02 | 0.02 | 84 | 1011.7 |
| 20260901230004 | 82 | 0 | 2.0 | 6.0 | 0.02 | 0.02 | 0.02 | 84 | 1011.7 |
| 20260901225903 | 82 | 0 | 2.0 | 6.0 | 0.02 | 0.02 | 0.02 | 84 | 1011.7 |
| 20260901225802 | 82 | 0 | 2.0 | 6.0 | 0.02 | 0.02 | 0.02 | 84 | 1011.7 |
| 20260901225704 | 82 | 0 | 2.0 | 6.0 | 0.02 | 0.02 | 0.02 | 84 | 1011.7 |
| 20260901225603 | 82 | 0 | 2.0 | 6.0 | 0.02 | 0.02 | 0.02 | 84 | 1011.7 |
| 20260901225505 | 82 | 0 | 3.0 | 6.0 | 0.02 | 0.02 | 0.02 | 84 | 1011.7 |
| 20260901225404 | 83 | 0 | 3.0 | 6.0 | 0.02 | 0.02 | 0.02 | 84 | 1011.8 |
| 20260901225306 | 83 | 0 | 3.0 | 5.0 | 0.02 | 0.02 | 0.02 | 84 | 1011.8 |
| 20260901225203 | 83 | 0 | 4.0 | 5.0 | 0.02 | 0.01 | 0.01 | 85 | 1011.8 |
| 20260901225103 | 83 | 0 | 3.0 | 5.0 | 0.01 | 0.01 | 0.01 | 85 | 1011.8 |
| 20260901225003 | 83 | 0 | 3.0 | 5.0 | 0.01 | 0.01 | 0.01 | 85 | 1011.9 |
| 20260901224903 | 83 | 0 | 3.0 | 5.0 | 0.01 | 0.01 | 0.01 | 85 | 1011.9 |
| 20260901224803 | 83 | 0 | 3.0 | 5.0 | 0.01 | 0.01 | 0.01 | 85 | 1011.8 |
| 20260901224705 | 83 | 0 | 3.0 | 5.0 | 0.01 | 0.01 | 0.01 | 85 | 1011.9 |
| 20260901224604 | 83 | 0 | 3.0 | 5.0 | 0.01 | 0.01 | 0.01 | 85 | 1012.0 |
| 20260901224504 | 83 | 0 | 3.0 | 5.0 | 0.01 | 0.01 | 0.01 | 85 | 1012.0 |
| 20260901224404 | 83 | 0 | 3.0 | 5.0 | 0.01 | 0.01 | 0.01 | 85 | 1011.9 |
| 20260901224302 | 83 | 0 | 3.0 | 5.0 | 0.01 | 0.01 | 0.01 | 85 | 1011.9 |
| 20260901224203 | 83 | 0 | 3.0 | 5.0 | 0.01 | 0.01 | 0.01 | 85 | 1011.9 |
| 20260901224102 | 83 | 0 | 2.0 | 5.0 | 0.01 | 0.01 | 0.01 | 85 | 1011.9 |
| 20260901224004 | 84 | 0 | 2.0 | 5.0 | 0.01 | 0.01 | 0.01 | 85 | 1011.9 |
| 20260901223902 | 84 | 0 | 2.0 | 7.0 | 0.01 | 0.01 | 0.01 | 84 | 1011.9 |
| 20260901223806 | 84 | 0 | 3.0 | 7.0 | 0.01 | 0.01 | 0.01 | 84 | 1011.9 |
| 20260901223703 | 84 | 0 | 3.0 | 7.0 | 0.01 | 0.01 | 0.01 | 84 | 1011.8 |
| 20260901223602 | 84 | 0 | 3.0 | 7.0 | 0.01 | 0.01 | 0.01 | 84 | 1011.8 |
| 20260901223504 | 84 | 0 | 2.0 | 7.0 | 0.01 | 0.01 | 0.01 | 84 | 1011.7 |
| 20260901223403 | 84 | 0 | 2.0 | 7.0 | 0.01 | 0.01 | 0.01 | 84 | 1011.8 |
| 20260901223303 | 84 | 0 | 3.0 | 7.0 | 0.01 | 0.01 | 0.01 | 84 | 1011.7 |
| 20260901223201 | 84 | 0 | 2.0 | 7.0 | 0.01 | 0.01 | 0.01 | 83 | 1011.8 |
| 20260901223103 | 84 | 0 | 4.0 | 7.0 | 0.01 | 0.01 | 0.01 | 83 | 1011.8 |
| 20260901223003 | 84 | 0 | 4.0 | 7.0 | 0.01 | 0.01 | 0.01 | 83 | 1011.8 |
| 20260901222902 | 84 | 0 | 3.0 | 6.0 | 0.01 | 0.01 | 0.01 | 83 | 1011.8 |
| 20260901222804 | 84 | 0 | 1.0 | 3.0 | 0.01 | 0.01 | 0.01 | 83 | 1011.8 |
| 20260901222703 | 84 | 0 | 0.0 | 2.0 | 0.01 | 0.01 | 0.01 | 83 | 1011.7 |
| 20260901222602 | 84 | 0 | 0.0 | 0.0 | 0.01 | 0.01 | 0.01 | 83 | 1011.8 |
| 20260901222503 | 84 | 0 | 0.0 | 0.0 | 0.01 | 0.01 | 0.01 | 83 | 1011.7 |
| 20260901222403 | 84 | 0 | 0.0 | 1.0 | 0.01 | 0.01 | 0.01 | 83 | 1011.8 |
| 20260901222306 | 84 | 0 | 0.0 | 1.0 | 0.01 | 0.01 | 0.01 | 83 | 1011.7 |
| 20260901222204 | 84 | 0 | 0.0 | 1.0 | 0.01 | 0.01 | 0.01 | 83 | 1011.7 |
| 20260901222102 | 84 | 0 | 0.0 | 1.0 | 0.01 | 0.01 | 0.01 | 82 | 1011.7 |
| 20260901222003 | 84 | 0 | 0.0 | 1.0 | 0.01 | 0.01 | 0.01 | 82 | 1011.7 |
| 20260901221903 | 84 | 0 | 0.0 | 1.0 | 0.01 | 0.01 | 0.01 | 83 | 1011.6 |
| 20260901221803 | 83 | 0 | 0.0 | 1.0 | 0.01 | 0.01 | 0.01 | 82 | 1011.6 |
| 20260901221703 | 84 | 0 | 0.0 | 3.0 | 0.01 | 0.01 | 0.01 | 83 | 1011.6 |
| 20260901221604 | 84 | 0 | 0.0 | 3.0 | 0.01 | 0.01 | 0.01 | 83 | 1011.6 |
| 20260901221503 | 84 | 0 | 0.0 | 3.0 | 0.01 | 0.01 | 0.01 | 84 | 1011.5 |
| 20260901221404 | 84 | 0 | 0.0 | 3.0 | 0.01 | 0.01 | 0.01 | 84 | 1011.6 |
| 20260901221302 | 84 | 0 | 0.0 | 3.0 | 0.01 | 0.01 | 0.01 | 84 | 1011.6 |
| 20260901221202 | 84 | 0 | 0.0 | 3.0 | 0.01 | 0.01 | 0.01 | 83 | 1011.6 |
| 20260901221104 | 84 | 61 | 0.0 | 3.0 | 0.01 | 0.01 | 0.01 | 83 | 1011.6 |
| 20260901221003 | 83 | 61 | 0.0 | 3.0 | 0.01 | 0.01 | 0.01 | 83 | 1011.6 |
| 20260901220903 | 83 | 62 | 1.0 | 3.0 | 0.01 | 0.01 | 0.01 | 82 | 1011.6 |
| 20260901220802 | 83 | 62 | 1.0 | 3.0 | 0.01 | 0.01 | 0.01 | 82 | 1011.6 |
| 20260901220703 | 84 | 65 | 0.0 | 0.0 | 0.01 | 0.01 | 0.01 | 84 | 1011.5 |
| 20260901220602 | 84 | 66 | 0.0 | 0.0 | 0.01 | 0.01 | 0.01 | 84 | 1011.5 |
| 20260901220501 | 84 | 69 | 0.0 | 0.0 | 0.01 | 0.01 | 0.01 | 84 | 1011.5 |
| 20260901220403 | 84 | 63 | 0.0 | 0.0 | 0.01 | 0.01 | 0.01 | 84 | 1011.6 |
| 20260901220302 | 84 | 58 | 0.0 | 0.0 | 0.01 | 0.00 | 0.00 | 84 | 1011.6 |
| 20260901220202 | 84 | 59 | 0.0 | 0.0 | 0.00 | 0.00 | 0.00 | 83 | 1011.6 |
| 20260901220105 | 84 | 69 | 0.0 | 0.0 | 0.00 | 0.00 | 0.00 | 83 | 1011.6 |
| 20260901220004 | 84 | 72 | 0.0 | 0.0 | 0.00 | 0.00 | 0.00 | 82 | 1011.7 |
| 20260901215902 | 84 | 79 | 0.0 | 0.0 | 0.00 | 0.00 | 0.00 | 82 | 1011.7 |
| 20260901215803 | 84 | 59 | 0.0 | 0.0 | 0.00 | 0.00 | 0.00 | 81 | 1011.8 |
| 20260901215703 | 85 | 58 | 0.0 | 0.0 | 0.00 | 0.00 | 0.00 | 81 | 1011.8 |
| 20260901215604 | 85 | 58 | 0.0 | 2.0 | 0.00 | 0.00 | 0.00 | 81 | 1011.8 |
| 20260901215503 | 85 | 58 | 0.0 | 2.0 | 0.00 | 0.00 | 0.00 | 81 | 1011.8 |
| 20260901215404 | 85 | 58 | 0.0 | 3.0 | 0.00 | 0.00 | 0.00 | 80 | 1011.9 |
| 20260901215305 | 85 | 58 | 0.0 | 3.0 | 0.00 | 0.00 | 0.00 | 81 | 1011.9 |
| 20260901215203 | 85 | 59 | 0.0 | 3.0 | 0.00 | 0.00 | 0.00 | 81 | 1011.8 |
| 20260901215103 | 85 | 59 | 0.0 | 3.0 | 0.00 | 0.00 | 0.00 | 81 | 1011.9 |
| 20260901215005 | 85 | 58 | 0.0 | 3.0 | 0.00 | 0.00 | 0.00 | 80 | 1011.9 |
| 20260901214903 | 85 | 59 | 0.0 | 3.0 | 0.00 | 0.00 | 0.00 | 80 | 1011.9 |
| 20260901214803 | 85 | 59 | 1.0 | 3.0 | 0.00 | 0.00 | 0.00 | 79 | 1012.0 |
| 20260901214706 | 85 | 59 | 1.0 | 3.0 | 0.00 | 0.00 | 0.00 | 79 | 1012.0 |
| 20260901214602 | 85 | 59 | 1.0 | 3.0 | 0.00 | 0.00 | 0.00 | 79 | 1012.0 |
| 20260901214504 | 86 | 59 | 2.0 | 3.0 | 0.00 | 0.00 | 0.00 | 78 | 1012.0 |
| 20260901214403 | 87 | 58 | 2.0 | 4.0 | 0.00 | 0.00 | 0.00 | 76 | 1012.1 |
| 20260901214306 | 87 | 58 | 2.0 | 4.0 | 0.00 | 0.00 | 0.00 | 76 | 1012.1 |
| 20260901214203 | 87 | 58 | 2.0 | 4.0 | 0.00 | 0.00 | 0.00 | 76 | 1012.1 |
| 20260901214103 | 87 | 58 | 2.0 | 5.0 | 0.00 | 0.00 | 0.00 | 76 | 1012.1 |
| 20260901214002 | 87 | 58 | 2.0 | 5.0 | 0.00 | 0.00 | 0.00 | 72 | 1012.1 |
| 20260901213903 | 88 | 61 | 2.0 | 5.0 | 0.00 | 0.00 | 0.00 | 72 | 1012.1 |
| 20260901213803 | 88 | 61 | 2.0 | 5.0 | 0.00 | 0.00 | 0.00 | 72 | 1012.1 |
| 20260901213703 | 88 | 61 | 2.0 | 5.0 | 0.00 | 0.00 | 0.00 | 72 | 1012.1 |
| 20260901213603 | 88 | 61 | 2.0 | 5.0 | 0.00 | 0.00 | 0.00 | 72 | 1012.1 |
| 20260901213504 | 88 | 61 | 2.0 | 5.0 | 0.00 | 0.00 | 0.00 | 72 | 1012.1 |
| 20260901213332 | 88 | 59 | 2.0 | 5.0 | 0.00 | 0.00 | 0.00 | 71 | 1012.1 |
| 20260901213232 | 88 | 59 | 2.0 | 5.0 | 0.00 | 0.00 | 0.00 | 70 | 1012.1 |
| 20260901213127 | 88 | 59 | 2.0 | 5.0 | 0.00 | 0.00 | 0.00 | 70 | 1012.0 |
| 20260901213024 | 88 | 61 | 1.0 | 4.0 | 0.00 | 0.00 | 0.00 | 70 | 1012.1 |
| 20260901212923 | 88 | 61 | 1.0 | 4.0 | 0.00 | 0.00 | 0.00 | 70 | 1012.1 |
| 20260901212821 | 88 | 62 | 2.0 | 4.0 | 0.00 | 0.00 | 0.00 | 71 | 1012.1 |
| 20260901212721 | 88 | 62 | 1.0 | 6.0 | 0.00 | 0.00 | 0.00 | 71 | 1012.1 |
| 20260901212621 | 88 | 65 | 0.0 | 6.0 | 0.00 | 0.00 | 0.00 | 71 | 1012.1 |
| 20260901212521 | 88 | 65 | 1.0 | 6.0 | 0.00 | 0.00 | 0.00 | 70 | 1012.1 |
| 20260901212421 | 88 | 65 | 2.0 | 6.0 | 0.00 | 0.00 | 0.00 | 70 | 1012.1 |
| 20260901212320 | 88 | 65 | 2.0 | 6.0 | 0.00 | 0.00 | 0.00 | 70 | 1012.1 |
| 20260901212222 | 88 | 55 | 3.0 | 6.0 | 0.00 | 0.00 | 0.00 | 70 | 1012.1 |
| 20260901212121 | 88 | 55 | 3.0 | 6.0 | 0.00 | 0.00 | 0.00 | 70 | 1012.1 |
| 20260901212020 | 88 | 54 | 3.0 | 6.0 | 0.00 | 0.00 | 0.00 | 70 | 1012.1 |
| 20260901211922 | 88 | 54 | 3.0 | 6.0 | 0.00 | 0.00 | 0.00 | 70 | 1012.1 |
| 20260901211821 | 88 | 52 | 2.0 | 6.0 | 0.00 | 0.00 | 0.00 | 70 | 1012.1 |
| 20260901211721 | 88 | 59 | 1.0 | 4.0 | 0.00 | 0.00 | 0.00 | 70 | 1012.0 |
| 20260901211621 | 88 | 59 | 0.0 | 4.0 | 0.00 | 0.00 | 0.00 | 70 | 1012.0 |
| 20260901211522 | 88 | 59 | 1.0 | 4.0 | 0.00 | 0.00 | 0.00 | 70 | 1012.0 |
| 20260901211420 | 88 | 59 | 2.0 | 4.0 | 0.00 | 0.00 | 0.00 | 70 | 1012.0 |
| 20260901211320 | 88 | 59 | 3.0 | 4.0 | 0.00 | 0.00 | 0.00 | 70 | 1012.0 |
| 20260901211221 | 88 | 59 | 2.0 | 4.0 | 0.00 | 0.00 | 0.00 | 70 | 1012.0 |
| 20260901211124 | 88 | 59 | 0.0 | 4.0 | 0.00 | 0.00 | 0.00 | 70 | 1012.1 |
| 20260901211021 | 88 | 59 | 1.0 | 4.0 | 0.00 | 0.00 | 0.00 | 69 | 1012.0 |
| 20260901210920 | 88 | 59 | 1.0 | 4.0 | 0.00 | 0.00 | 0.00 | 69 | 1012.0 |
| 20260901210821 | 88 | 59 | 2.0 | 4.0 | 0.00 | 0.00 | 0.00 | 69 | 1012.0 |
| 20260901210717 | 88 | 59 | 2.0 | 4.0 | 0.00 | 0.00 | 0.00 | 69 | 1011.9 |
| 20260901210613 | 88 | 59 | 2.0 | 4.0 | 0.00 | 0.00 | 0.00 | 69 | 1012.0 |
| 20260901210511 | 88 | 59 | 2.0 | 3.0 | 0.00 | 0.00 | 0.00 | 70 | 1012.0 |
| 20260901210410 | 88 | 59 | 2.0 | 3.0 | 0.00 | 0.00 | 0.00 | 69 | 1011.9 |
| 20260901210306 | 88 | 59 | 2.0 | 3.0 | 0.00 | 0.00 | 0.00 | 69 | 1011.9 |
| 20260901210203 | 88 | 59 | 1.0 | 3.0 | 0.00 | 0.00 | 0.00 | 69 | 1011.8 |
| 20260901210003 | 88 | 305 | 0.0 | 2.0 | 0.00 | 0.00 | 0.00 | 69 | 1011.8 |
| 20260901205902 | 88 | 305 | 0.0 | 3.0 | 0.00 | 0.00 | 0.00 | 70 | 1011.9 |
| 20260901205802 | 88 | 305 | 0.0 | 3.0 | 0.00 | 0.00 | 0.00 | 70 | 1011.9 |
| 20260901205702 | 88 | 305 | 0.0 | 3.0 | 0.00 | 0.00 | 0.00 | 69 | 1011.8 |
| 20260901205603 | 88 | 305 | 0.0 | 3.0 | 0.00 | 0.00 | 0.00 | 70 | 1011.8 |
| 20260901205504 | 88 | 305 | 0.0 | 3.0 | 0.00 | 0.00 | 0.00 | 70 | 1011.8 |
| 20260901205403 | 88 | 305 | 2.0 | 3.0 | 0.00 | 0.00 | 0.00 | 68 | 1011.8 |
| 20260901205306 | 88 | 305 | 2.0 | 3.0 | 0.00 | 0.00 | 0.00 | 68 | 1011.8 |
| 20260901205203 | 88 | 305 | 2.0 | 3.0 | 0.00 | 0.00 | 0.00 | 68 | 1011.8 |
| 20260901205103 | 88 | 305 | 2.0 | 3.0 | 0.00 | 0.00 | 0.00 | 68 | 1011.8 |
| 20260901205004 | 88 | 305 | 2.0 | 3.0 | 0.00 | 0.00 | 0.00 | 68 | 1011.8 |
| 20260901204903 | 88 | 305 | 2.0 | 3.0 | 0.00 | 0.00 | 0.00 | 69 | 1011.7 |
| 20260901204802 | 88 | 305 | 2.0 | 3.0 | 0.00 | 0.00 | 0.00 | 69 | 1011.7 |
| 20260901204703 | 88 | 303 | 1.0 | 0.0 | 0.00 | 0.00 | 0.00 | 69 | 1011.7 |
| 20260901204604 | 88 | 303 | 1.0 | 2.0 | 0.00 | 0.00 | 0.00 | 69 | 1011.8 |
| 20260901204504 | 88 | 303 | 1.0 | 3.0 | 0.00 | 0.00 | 0.00 | 69 | 1011.7 |
| 20260901204403 | 88 | 303 | 1.0 | 4.0 | 0.00 | 0.00 | 0.00 | 69 | 1011.7 |
| 20260901204303 | 88 | 303 | 1.0 | 4.0 | 0.00 | 0.00 | 0.00 | 69 | 1011.7 |
| 20260901204203 | 88 | 303 | 1.0 | 4.0 | 0.00 | 0.00 | 0.00 | 69 | 1011.7 |
| 20260901204103 | 88 | 303 | 1.0 | 5.0 | 0.00 | 0.00 | 0.00 | 69 | 1011.7 |
| 20260901204003 | 88 | 303 | 1.0 | 5.0 | 0.00 | 0.00 | 0.00 | 69 | 1011.7 |
| 20260901203903 | 88 | 303 | 1.0 | 5.0 | 0.00 | 0.00 | 0.00 | 69 | 1011.7 |
| 20260901203803 | 88 | 303 | 1.0 | 5.0 | 0.00 | 0.00 | 0.00 | 69 | 1011.7 |
| 20260901203702 | 88 | 303 | 1.0 | 5.0 | 0.00 | 0.00 | 0.00 | 68 | 1011.7 |
| 20260901203603 | 88 | 303 | 2.0 | 5.0 | 0.00 | 0.00 | 0.00 | 69 | 1011.7 |
| 20260901203504 | 88 | 303 | 1.0 | 5.0 | 0.00 | 0.00 | 0.00 | 69 | 1011.7 |
| 20260901203402 | 88 | 303 | 0.0 | 5.0 | 0.00 | 0.00 | 0.00 | 69 | 1011.7 |
| 20260901203302 | 88 | 303 | 1.0 | 6.0 | 0.00 | 0.00 | 0.00 | 69 | 1011.7 |
| 20260901203204 | 88 | 303 | 2.0 | 6.0 | 0.00 | 0.00 | 0.00 | 69 | 1011.7 |
| 20260901203104 | 88 | 302 | 2.0 | 6.0 | 0.00 | 0.00 | 0.00 | 69 | 1011.7 |
| 20260901203003 | 88 | 302 | 2.0 | 6.0 | 0.00 | 0.00 | 0.00 | 69 | 1011.7 |
| 20260901202903 | 87 | 289 | 1.0 | 6.0 | 0.00 | 0.00 | 0.00 | 70 | 1011.7 |
| 20260901202803 | 87 | 286 | 4.0 | 6.0 | 0.00 | 0.00 | 0.00 | 70 | 1011.8 |
| 20260901202703 | 87 | 286 | 4.0 | 6.0 | 0.00 | 0.00 | 0.00 | 70 | 1011.8 |
| 20260901202603 | 87 | 286 | 4.0 | 6.0 | 0.00 | 0.00 | 0.00 | 70 | 1011.7 |
| 20260901202504 | 87 | 286 | 4.0 | 6.0 | 0.00 | 0.00 | 0.00 | 70 | 1011.7 |
| 20260901202402 | 87 | 286 | 4.0 | 6.0 | 0.00 | 0.00 | 0.00 | 70 | 1011.8 |
| 20260901202306 | 87 | 302 | 2.0 | 6.0 | 0.00 | 0.00 | 0.00 | 71 | 1011.8 |
| 20260901202202 | 87 | 355 | 0.0 | 3.0 | 0.00 | 0.00 | 0.00 | 71 | 1011.9 |
| 20260901202104 | 87 | 355 | 0.0 | 3.0 | 0.00 | 0.00 | 0.00 | 71 | 1011.9 |
| 20260901202005 | 87 | 355 | 0.0 | 3.0 | 0.00 | 0.00 | 0.00 | 71 | 1011.9 |
| 20260901201904 | 87 | 355 | 1.0 | 3.0 | 0.00 | 0.00 | 0.00 | 71 | 1012.0 |
| 20260901201804 | 87 | 355 | 1.0 | 3.0 | 0.00 | 0.00 | 0.00 | 70 | 1012.0 |
| 20260901201703 | 87 | 355 | 1.0 | 3.0 | 0.00 | 0.00 | 0.00 | 70 | 1012.0 |
| 20260901201603 | 87 | 355 | 0.0 | 3.0 | 0.00 | 0.00 | 0.00 | 70 | 1012.0 |
| 20260901201503 | 87 | 355 | 0.0 | 3.0 | 0.00 | 0.00 | 0.00 | 70 | 1012.1 |
| 20260901201402 | 87 | 355 | 0.0 | 0.0 | 0.00 | 0.00 | 0.00 | 70 | 1012.1 |
| 20260901201301 | 87 | 355 | 0.0 | 0.0 | 0.00 | 0.00 | 0.00 | 70 | 1012.2 |
| 20260901201202 | 87 | 355 | 0.0 | 5.0 | 0.00 | 0.00 | 0.00 | 71 | 1012.2 |
| 20260901201103 | 87 | 355 | 0.0 | 5.0 | 0.00 | 0.00 | 0.00 | 72 | 1012.2 |
| 20260901201003 | 87 | 355 | 0.0 | 5.0 | 0.00 | 0.00 | 0.00 | 72 | 1012.2 |
| 20260901200902 | 87 | 355 | 0.0 | 5.0 | 0.00 | 0.00 | 0.00 | 72 | 1012.2 |
| 20260901200802 | 87 | 355 | 0.0 | 5.0 | 0.00 | 0.00 | 0.00 | 71 | 1012.3 |
| 20260901200702 | 87 | 355 | 0.0 | 5.0 | 0.00 | 0.00 | 0.00 | 71 | 1012.3 |
| 20260901200603 | 87 | 355 | 1.0 | 5.0 | 0.00 | 0.00 | 0.00 | 72 | 1012.3 |
| 20260901200504 | 87 | 355 | 1.0 | 5.0 | 0.00 | 0.00 | 0.00 | 72 | 1012.4 |
| 20260901200403 | 87 | 355 | 1.0 | 5.0 | 0.00 | 0.00 | 0.00 | 72 | 1012.3 |
| 20260901200304 | 87 | 355 | 1.0 | 5.0 | 0.00 | 0.00 | 0.00 | 72 | 1012.4 |
| 20260901200202 | 87 | 71 | 0.0 | 0.0 | 0.00 | 0.00 | 0.00 | 71 | 1012.5 |
| 20260901200002 | 87 | 71 | 0.0 | 0.0 | 0.00 | 0.00 | 0.00 | 74 | 1012.6 |
| 20260901195902 | 86 | 71 | 0.0 | 0.0 | 0.00 | 0.00 | 0.00 | 74 | 1012.6 |
| 20260901195804 | 86 | 71 | 0.0 | 0.0 | 0.00 | 0.00 | 0.00 | 74 | 1012.7 |
| 20260901195704 | 86 | 71 | 0.0 | 0.0 | 0.00 | 0.00 | 0.00 | 74 | 1012.6 |
| 20260901195602 | 86 | 71 | 0.0 | 0.0 | 0.00 | 0.00 | 0.00 | 75 | 1012.7 |
| 20260901195503 | 86 | 71 | 0.0 | 0.0 | 0.00 | 0.00 | 0.00 | 74 | 1012.8 |
| 20260901195403 | 86 | 71 | 0.0 | 0.0 | 0.00 | 0.00 | 0.00 | 74 | 1012.8 |
| 20260901195306 | 86 | 71 | 0.0 | 0.0 | 0.00 | 0.00 | 0.00 | 75 | 1012.8 |
| 20260901195204 | 86 | 71 | 0.0 | 0.0 | 0.00 | 0.00 | 0.00 | 75 | 1012.9 |
| 20260901195103 | 86 | 71 | 0.0 | 0.0 | 0.00 | 0.00 | 0.00 | 75 | 1012.9 |
| 20260901195004 | 86 | 71 | 0.0 | 0.0 | 0.00 | 0.00 | 0.00 | 75 | 1012.9 |
| 20260901194902 | 86 | 71 | 0.0 | 0.0 | 0.00 | 0.00 | 0.00 | 75 | 1013.0 |
| 20260901194804 | 86 | 71 | 0.0 | 0.0 | 0.00 | 0.00 | 0.00 | 75 | 1013.0 |
| 20260901194704 | 86 | 71 | 0.0 | 0.0 | 0.00 | 0.00 | 0.00 | 75 | 1013.0 |
| 20260901194601 | 86 | 71 | 0.0 | 0.0 | 0.00 | 0.01 | 0.00 | 75 | 1013.0 |
| 20260901194502 | 86 | 71 | 0.0 | 0.0 | 0.00 | 0.01 | 0.00 | 76 | 1013.1 |
| 20260901194403 | 86 | 71 | 0.0 | 2.0 | 0.00 | 0.01 | 0.00 | 75 | 1013.0 |
| 20260901194304 | 86 | 71 | 0.0 | 2.0 | 0.00 | 0.02 | 0.00 | 75 | 1013.1 |
| 20260901194203 | 86 | 71 | 0.0 | 4.0 | 0.00 | 0.02 | 0.00 | 74 | 1013.0 |
| 20260901194104 | 86 | 71 | 0.0 | 4.0 | 0.00 | 0.02 | 0.00 | 75 | 1013.0 |
| 20260901194004 | 86 | 71 | 0.0 | 4.0 | 0.00 | 0.02 | 0.00 | 75 | 1013.1 |
| 20260901193901 | 86 | 71 | 0.0 | 4.0 | 0.00 | 0.02 | 0.00 | 75 | 1013.1 |
| 20260901193802 | 86 | 71 | 0.0 | 4.0 | 0.00 | 0.02 | 0.00 | 74 | 1013.1 |
| 20260901193701 | 86 | 71 | 0.0 | 4.0 | 0.00 | 0.02 | 0.00 | 73 | 1013.1 |
| 20260901193603 | 86 | 71 | 0.0 | 4.0 | 0.00 | 0.02 | 0.00 | 73 | 1013.1 |
| 20260901193503 | 86 | 71 | 1.0 | 4.0 | 0.00 | 0.02 | 0.00 | 73 | 1013.2 |
| 20260901193403 | 86 | 71 | 2.0 | 4.0 | 0.00 | 0.02 | 0.00 | 72 | 1013.2 |
| 20260901193302 | 86 | 71 | 3.0 | 4.0 | 0.00 | 0.02 | 0.00 | 71 | 1013.1 |
| 20260901193204 | 86 | 71 | 3.0 | 4.0 | 0.00 | 0.03 | 0.00 | 72 | 1013.1 |
| 20260901193102 | 86 | 72 | 3.0 | 4.0 | 0.00 | 0.03 | 0.00 | 72 | 1013.2 |
| 20260901193003 | 86 | 72 | 2.0 | 4.0 | 0.00 | 0.03 | 0.00 | 72 | 1013.2 |
| 20260901192903 | 86 | 72 | 2.0 | 4.0 | 0.00 | 0.03 | 0.00 | 72 | 1013.2 |
| 20260901192802 | 87 | 72 | 2.0 | 4.0 | 0.00 | 0.04 | 0.00 | 72 | 1013.2 |
| 20260901192704 | 87 | 71 | 0.0 | 4.0 | 0.00 | 0.04 | 0.00 | 73 | 1013.3 |
| 20260901192604 | 87 | 71 | 0.0 | 4.0 | 0.00 | 0.04 | 0.00 | 73 | 1013.2 |
| 20260901192505 | 87 | 71 | 0.0 | 4.0 | 0.00 | 0.04 | 0.00 | 73 | 1013.3 |
| 20260901192404 | 87 | 71 | 0.0 | 4.0 | 0.00 | 0.04 | 0.00 | 73 | 1013.2 |
| 20260901192306 | 87 | 71 | 0.0 | 3.0 | 0.00 | 0.04 | 0.00 | 73 | 1013.1 |
| 20260901192202 | 87 | 71 | 0.0 | 3.0 | 0.00 | 0.04 | 0.00 | 73 | 1013.2 |
| 20260901192101 | 87 | 71 | 0.0 | 3.0 | 0.00 | 0.04 | 0.00 | 73 | 1013.1 |
| 20260901192004 | 87 | 71 | 0.0 | 3.0 | 0.00 | 0.04 | 0.00 | 73 | 1013.1 |
| 20260901191903 | 87 | 71 | 1.0 | 3.0 | 0.00 | 0.04 | 0.00 | 73 | 1013.1 |
| 20260901191802 | 87 | 71 | 1.0 | 3.0 | 0.00 | 0.04 | 0.00 | 73 | 1013.1 |
| 20260901191703 | 87 | 71 | 0.0 | 3.0 | 0.00 | 0.04 | 0.00 | 73 | 1013.1 |
| 20260901191603 | 87 | 71 | 2.0 | 3.0 | 0.00 | 0.04 | 0.00 | 73 | 1013.0 |
| 20260901191503 | 87 | 71 | 2.0 | 3.0 | 0.00 | 0.04 | 0.00 | 73 | 1013.1 |
| 20260901191403 | 87 | 71 | 2.0 | 3.0 | 0.00 | 0.04 | 0.00 | 73 | 1013.1 |
| 20260901191303 | 87 | 71 | 2.0 | 3.0 | 0.00 | 0.04 | 0.00 | 73 | 1013.0 |
| 20260901191201 | 87 | 71 | 2.0 | 3.0 | 0.00 | 0.04 | 0.00 | 73 | 1013.1 |
| 20260901191102 | 87 | 71 | 2.0 | 3.0 | 0.00 | 0.04 | 0.00 | 73 | 1013.0 |
| 20260901191005 | 87 | 71 | 1.0 | 3.0 | 0.00 | 0.04 | 0.00 | 74 | 1013.1 |
| 20260901190904 | 87 | 71 | 0.0 | 4.0 | 0.00 | 0.04 | 0.00 | 74 | 1013.0 |
| 20260901190802 | 87 | 71 | 1.0 | 4.0 | 0.00 | 0.04 | 0.00 | 74 | 1013.0 |
| 20260901190702 | 87 | 71 | 1.0 | 4.0 | 0.00 | 0.04 | 0.00 | 74 | 1013.0 |
| 20260901190603 | 87 | 71 | 0.0 | 4.0 | 0.00 | 0.04 | 0.00 | 74 | 1013.0 |
| 20260901190503 | 87 | 72 | 2.0 | 4.0 | 0.00 | 0.04 | 0.00 | 73 | 1013.0 |
| 20260901190403 | 87 | 72 | 2.0 | 4.0 | 0.00 | 0.04 | 0.00 | 73 | 1013.0 |
| 20260901190304 | 87 | 72 | 2.0 | 4.0 | 0.00 | 0.04 | 0.00 | 73 | 1013.1 |
| 20260901190204 | 87 | 72 | 2.0 | 4.0 | 0.00 | 0.04 | 0.00 | 73 | 1013.1 |
| 20260901190002 | 87 | 72 | 2.0 | 4.0 | 0.00 | 0.04 | 0.00 | 73 | 1013.1 |
| 20260901185902 | 87 | 76 | 1.0 | 3.0 | 0.00 | 0.04 | 0.00 | 73 | 1013.1 |
| 20260901185804 | 87 | 76 | 0.0 | 2.0 | 0.00 | 0.04 | 0.00 | 73 | 1013.1 |
| 20260901185704 | 87 | 76 | 0.0 | 2.0 | 0.00 | 0.04 | 0.00 | 73 | 1013.1 |
| 20260901185603 | 87 | 76 | 0.0 | 2.0 | 0.00 | 0.04 | 0.00 | 74 | 1013.1 |
| 20260901185503 | 87 | 76 | 0.0 | 3.0 | 0.00 | 0.04 | 0.00 | 73 | 1013.1 |
| 20260901185402 | 87 | 76 | 0.0 | 3.0 | 0.00 | 0.04 | 0.00 | 73 | 1013.1 |
| 20260901185306 | 87 | 76 | 0.0 | 3.0 | 0.00 | 0.04 | 0.00 | 74 | 1013.1 |
| 20260901185202 | 87 | 76 | 0.0 | 3.0 | 0.00 | 0.04 | 0.00 | 74 | 1013.1 |
| 20260901185103 | 87 | 76 | 0.0 | 3.0 | 0.00 | 0.04 | 0.00 | 74 | 1013.1 |
| 20260901185004 | 87 | 76 | 2.0 | 3.0 | 0.00 | 0.04 | 0.00 | 74 | 1013.2 |
| 20260901184903 | 87 | 76 | 2.0 | 3.0 | 0.00 | 0.04 | 0.00 | 74 | 1013.1 |
| 20260901184804 | 87 | 76 | 2.0 | 3.0 | 0.00 | 0.04 | 0.00 | 74 | 1013.1 |
| 20260901184703 | 87 | 76 | 2.0 | 3.0 | 0.00 | 0.04 | 0.00 | 74 | 1013.1 |
| 20260901184604 | 87 | 76 | 2.0 | 3.0 | 0.00 | 0.04 | 0.00 | 74 | 1013.2 |
| 20260901184504 | 87 | 76 | 1.0 | 2.0 | 0.00 | 0.04 | 0.00 | 74 | 1013.1 |
| 20260901184403 | 87 | 76 | 1.0 | 2.0 | 0.00 | 0.04 | 0.00 | 73 | 1013.1 |
| 20260901184301 | 87 | 76 | 0.0 | 2.0 | 0.00 | 0.04 | 0.00 | 73 | 1013.2 |
| 20260901184203 | 87 | 76 | 0.0 | 2.0 | 0.00 | 0.04 | 0.00 | 73 | 1013.1 |
| 20260901184103 | 87 | 76 | 0.0 | 2.0 | 0.00 | 0.04 | 0.00 | 73 | 1013.1 |
| 20260901184004 | 87 | 76 | 0.0 | 2.0 | 0.00 | 0.04 | 0.00 | 73 | 1013.1 |
| 20260901183903 | 87 | 76 | 0.0 | 2.0 | 0.00 | 0.04 | 0.00 | 73 | 1013.1 |
| 20260901183804 | 87 | 76 | 0.0 | 2.0 | 0.00 | 0.04 | 0.00 | 73 | 1013.2 |
| 20260901183703 | 87 | 76 | 0.0 | 2.0 | 0.00 | 0.04 | 0.00 | 73 | 1013.3 |
| 20260901183603 | 87 | 76 | 0.0 | 2.0 | 0.00 | 0.04 | 0.00 | 73 | 1013.2 |
| 20260901183503 | 87 | 76 | 0.0 | 2.0 | 0.00 | 0.04 | 0.00 | 73 | 1013.3 |
| 20260901183404 | 87 | 76 | 0.0 | 2.0 | 0.00 | 0.04 | 0.00 | 73 | 1013.3 |
| 20260901183303 | 87 | 76 | 0.0 | 2.0 | 0.00 | 0.04 | 0.00 | 73 | 1013.2 |
| 20260901183203 | 87 | 76 | 0.0 | 2.0 | 0.00 | 0.04 | 0.00 | 73 | 1013.3 |
| 20260901183103 | 87 | 76 | 0.0 | 3.0 | 0.00 | 0.04 | 0.00 | 73 | 1013.4 |
| 20260901183002 | 87 | 76 | 0.0 | 3.0 | 0.00 | 0.04 | 0.00 | 73 | 1013.3 |
| 20260901182904 | 87 | 76 | 1.0 | 4.0 | 0.00 | 0.04 | 0.00 | 73 | 1013.3 |
| 20260901182803 | 87 | 78 | 0.0 | 4.0 | 0.00 | 0.04 | 0.00 | 73 | 1013.3 |
| 20260901182703 | 87 | 78 | 0.0 | 4.0 | 0.00 | 0.04 | 0.00 | 73 | 1013.3 |
| 20260901182603 | 87 | 78 | 2.0 | 4.0 | 0.00 | 0.04 | 0.00 | 73 | 1013.3 |
| 20260901182504 | 87 | 78 | 2.0 | 4.0 | 0.00 | 0.04 | 0.00 | 73 | 1013.4 |
| 20260901182404 | 87 | 78 | 2.0 | 4.0 | 0.00 | 0.04 | 0.00 | 73 | 1013.4 |
| 20260901182233 | 87 | 78 | 2.0 | 4.0 | 0.00 | 0.04 | 0.00 | 73 | 1013.4 |
| 20260901182132 | 87 | 78 | 2.0 | 4.0 | 0.00 | 0.04 | 0.00 | 73 | 1013.3 |
| 20260901182031 | 87 | 78 | 2.0 | 4.0 | 0.00 | 0.04 | 0.00 | 73 | 1013.5 |
| 20260901181932 | 87 | 79 | 1.0 | 3.0 | 0.00 | 0.04 | 0.00 | 74 | 1013.5 |
| 20260901181830 | 87 | 79 | 1.0 | 3.0 | 0.00 | 0.04 | 0.00 | 73 | 1013.4 |
| 20260901181731 | 87 | 79 | 0.0 | 3.0 | 0.00 | 0.04 | 0.00 | 73 | 1013.4 |
| 20260901181631 | 87 | 80 | 0.0 | 3.0 | 0.00 | 0.04 | 0.00 | 72 | 1013.4 |
| 20260901181531 | 87 | 80 | 0.0 | 3.0 | 0.00 | 0.04 | 0.00 | 73 | 1013.4 |
| 20260901181433 | 87 | 80 | 0.0 | 3.0 | 0.00 | 0.04 | 0.00 | 74 | 1013.5 |
| 20260901181332 | 87 | 80 | 0.0 | 4.0 | 0.00 | 0.04 | 0.00 | 74 | 1013.5 |
| 20260901181232 | 87 | 80 | 0.0 | 4.0 | 0.00 | 0.04 | 0.00 | 73 | 1013.5 |
| 20260901181132 | 87 | 80 | 2.0 | 4.0 | 0.00 | 0.04 | 0.00 | 72 | 1013.5 |
| 20260901181032 | 87 | 80 | 1.0 | 4.0 | 0.00 | 0.04 | 0.00 | 72 | 1013.5 |
| 20260901180931 | 87 | 80 | 0.0 | 4.0 | 0.00 | 0.04 | 0.00 | 72 | 1013.5 |
| 20260901180831 | 87 | 80 | 0.0 | 4.0 | 0.00 | 0.04 | 0.00 | 73 | 1013.5 |
| 20260901180733 | 87 | 80 | 0.0 | 4.0 | 0.00 | 0.04 | 0.00 | 74 | 1013.5 |
| 20260901180634 | 87 | 80 | 0.0 | 4.0 | 0.00 | 0.04 | 0.00 | 73 | 1013.6 |
| 20260901180531 | 87 | 80 | 2.0 | 4.0 | 0.00 | 0.04 | 0.00 | 73 | 1013.6 |
| 20260901180432 | 87 | 80 | 2.0 | 4.0 | 0.00 | 0.04 | 0.00 | 73 | 1013.6 |
| 20260901180332 | 87 | 82 | 2.0 | 4.0 | 0.00 | 0.04 | 0.00 | 73 | 1013.6 |
| 20260901180231 | 87 | 82 | 2.0 | 4.0 | 0.00 | 0.04 | 0.00 | 75 | 1013.6 |
| 20260901180132 | 87 | 49 | 0.0 | 4.0 | 0.00 | 0.04 | 0.00 | 75 | 1013.7 |
| 20260901180014 | 87 | 49 | 0.0 | 4.0 | 0.00 | 0.04 | 0.00 | 75 | 1013.7 |
| 20260901175913 | 87 | 49 | 0.0 | 4.0 | 0.00 | 0.04 | 0.00 | 75 | 1013.7 |
| 20260901175813 | 87 | 49 | 0.0 | 4.0 | 0.00 | 0.04 | 0.00 | 74 | 1013.7 |
| 20260901175712 | 87 | 49 | 1.0 | 4.0 | 0.00 | 0.04 | 0.00 | 75 | 1013.7 |
| 20260901175612 | 87 | 49 | 1.0 | 4.0 | 0.00 | 0.04 | 0.00 | 76 | 1013.7 |
| 20260901175515 | 87 | 49 | 1.0 | 4.0 | 0.00 | 0.04 | 0.00 | 75 | 1013.8 |
| 20260901175413 | 87 | 47 | 0.0 | 4.0 | 0.00 | 0.04 | 0.00 | 76 | 1013.7 |
| 20260901175313 | 87 | 47 | 1.0 | 4.0 | 0.00 | 0.04 | 0.00 | 76 | 1013.7 |
| 20260901175213 | 87 | 44 | 1.0 | 4.0 | 0.00 | 0.04 | 0.00 | 76 | 1013.7 |
| 20260901175115 | 86 | 45 | 0.0 | 3.0 | 0.00 | 0.04 | 0.00 | 75 | 1013.8 |
| 20260901175013 | 86 | 45 | 1.0 | 3.0 | 0.00 | 0.04 | 0.00 | 77 | 1013.8 |
| 20260901174912 | 86 | 45 | 1.0 | 3.0 | 0.00 | 0.04 | 0.00 | 77 | 1013.9 |
| 20260901174813 | 86 | 45 | 1.0 | 3.0 | 0.00 | 0.04 | 0.00 | 76 | 1013.9 |
| 20260901174712 | 86 | 45 | 0.0 | 1.0 | 0.00 | 0.04 | 0.00 | 76 | 1013.9 |
| 20260901174614 | 0 | 0.0 | 0.0 | 0.00 | 0.04 | 0.00 | 1013.9 | ||
| 20260901174513 | 0 | 0.0 | 0.0 | 0.00 | 0.04 | 0.00 | 1014.0 | ||
| 20260901174413 | 0 | 0.0 | 0.0 | 0.00 | 0.04 | 0.00 | 1014.1 | ||
| 20260901174311 | 0 | 0.0 | 0.0 | 0.00 | 0.04 | 0.00 | 1014.1 | ||
| 20260901174211 | 0 | 45 | 0.0 | 0.0 | 0.00 | 0.04 | 0.00 | 1014.2 | |
| 20260901174111 | 86 | 45 | 0.0 | 0.0 | 0.00 | 0.04 | 0.00 | 76 | 1014.2 |
| 20260901174016 | 86 | 45 | 0.0 | 0.0 | 0.00 | 0.04 | 0.00 | 76 | 1014.1 |
| 20260901173911 | 86 | 45 | 0.0 | 0.0 | 0.00 | 0.04 | 0.00 | 76 | 1014.2 |
| 20260901173809 | 86 | 45 | 0.0 | 0.0 | 0.00 | 0.04 | 0.00 | 76 | 1014.2 |
| 20260901173711 | 86 | 45 | 0.0 | 0.0 | 0.00 | 0.04 | 0.00 | 76 | 1014.2 |
| 20260901173609 | 86 | 45 | 0.0 | 0.0 | 0.00 | 0.04 | 0.00 | 76 | 1014.3 |
| 20260901173510 | 86 | 45 | 0.0 | 0.0 | 0.00 | 0.04 | 0.00 | 76 | 1014.3 |
| 20260901173403 | 86 | 45 | 0.0 | 0.0 | 0.00 | 0.04 | 0.00 | 76 | 1014.3 |
| 20260901173303 | 86 | 45 | 0.0 | 0.0 | 0.00 | 0.04 | 0.00 | 76 | 1014.2 |
| 20260901173202 | 86 | 45 | 0.0 | 0.0 | 0.00 | 0.04 | 0.00 | 76 | 1014.3 |
| 20260901173103 | 86 | 45 | 0.0 | 4.0 | 0.00 | 0.04 | 0.00 | 76 | 1014.3 |
| 20260901173002 | 86 | 47 | 0.0 | 4.0 | 0.00 | 0.04 | 0.00 | 76 | 1014.3 |
| 20260901172903 | 86 | 47 | 0.0 | 4.0 | 0.00 | 0.04 | 0.00 | 76 | 1014.4 |
| 20260901172803 | 86 | 45 | 0.0 | 4.0 | 0.00 | 0.04 | 0.00 | 76 | 1014.4 |
| 20260901172703 | 86 | 35 | 0.0 | 4.0 | 0.00 | 0.04 | 0.00 | 76 | 1014.3 |
| 20260901172604 | 86 | 35 | 0.0 | 4.0 | 0.00 | 0.04 | 0.00 | 76 | 1014.5 |
| 20260901172503 | 86 | 35 | 0.0 | 4.0 | 0.00 | 0.04 | 0.00 | 76 | 1014.3 |
| 20260901172332 | 86 | 35 | 0.0 | 4.0 | 0.00 | 0.04 | 0.00 | 76 | 1014.4 |
| 20260901172231 | 86 | 35 | 1.0 | 4.0 | 0.00 | 0.04 | 0.00 | 76 | 1014.4 |
| 20260901172131 | 86 | 35 | 2.0 | 4.0 | 0.00 | 0.04 | 0.00 | 76 | 1014.5 |
| 20260901172032 | 0 | 0.0 | 0.0 | 0.00 | 0.04 | 0.00 | 1014.3 | ||
| 20260901171932 | 0 | 0.0 | 0.0 | 0.00 | 0.04 | 0.00 | 1014.4 | ||
| 20260901171832 | 0 | 0.0 | 0.0 | 0.00 | 0.04 | 0.00 | 1014.4 | ||
| 20260901171732 | 0 | 0.0 | 0.0 | 0.00 | 0.04 | 0.00 | 1014.4 | ||
| 20260901171633 | 0 | 0.0 | 0.0 | 0.00 | 0.04 | 0.00 | 1014.4 | ||
| 20260901171531 | 87 | 338 | 1.0 | 1.0 | 0.00 | 0.04 | 0.00 | 74 | 1014.5 |
| 20260901171432 | 87 | 338 | 1.0 | 3.0 | 0.00 | 0.04 | 0.00 | 74 | 1014.5 |
| 20260901171332 | 87 | 338 | 1.0 | 3.0 | 0.00 | 0.04 | 0.00 | 74 | 1014.5 |
| 20260901171232 | 87 | 338 | 1.0 | 3.0 | 0.00 | 0.04 | 0.00 | 74 | 1014.5 |
| 20260901171132 | 87 | 338 | 1.0 | 3.0 | 0.00 | 0.04 | 0.00 | 74 | 1014.6 |
| 20260901171032 | 87 | 338 | 1.0 | 4.0 | 0.00 | 0.04 | 0.00 | 74 | 1014.6 |
| 20260901170934 | 87 | 338 | 1.0 | 4.0 | 0.00 | 0.04 | 0.00 | 74 | 1014.6 |
| 20260901170832 | 87 | 338 | 1.0 | 4.0 | 0.00 | 0.04 | 0.00 | 74 | 1014.5 |
| 20260901170733 | 87 | 338 | 1.0 | 4.0 | 0.00 | 0.04 | 0.00 | 74 | 1014.6 |
| 20260901170631 | 87 | 338 | 1.0 | 4.0 | 0.00 | 0.04 | 0.00 | 74 | 1014.6 |
| 20260901170520 | 87 | 338 | 0.0 | 4.0 | 0.00 | 0.04 | 0.00 | 74 | 1014.6 |
| 20260901170419 | 87 | 338 | 0.0 | 4.0 | 0.00 | 0.04 | 0.00 | 74 | 1014.6 |
| 20260901170316 | 87 | 338 | 1.0 | 4.0 | 0.00 | 0.04 | 0.00 | 74 | 1014.6 |
| 20260901170217 | 87 | 338 | 2.0 | 5.0 | 0.00 | 0.04 | 0.00 | 75 | 1014.6 |
| 20260901170114 | 87 | 41 | 1.0 | 5.0 | 0.00 | 0.04 | 0.00 | 75 | 1014.6 |
| 20260901170014 | 87 | 41 | 2.0 | 5.0 | 0.00 | 0.04 | 0.00 | 74 | 1014.6 |
| 20260901165913 | 87 | 41 | 2.0 | 5.0 | 0.00 | 0.04 | 0.00 | 74 | 1014.7 |
| 20260901165813 | 87 | 0 | 2.0 | 5.0 | 0.00 | 0.04 | 0.00 | 74 | 1014.6 |
| 20260901165711 | 87 | 0 | 2.0 | 5.0 | 0.00 | 0.04 | 0.00 | 74 | 1014.7 |
| 20260901165608 | 87 | 24 | 2.0 | 5.0 | 0.00 | 0.04 | 0.00 | 74 | 1014.7 |
| 20260901165508 | 87 | 24 | 2.0 | 5.0 | 0.00 | 0.04 | 0.00 | 73 | 1014.7 |
| 20260901165406 | 87 | 333 | 2.0 | 5.0 | 0.00 | 0.04 | 0.00 | 73 | 1014.7 |
| 20260901165306 | 87 | 333 | 2.0 | 5.0 | 0.00 | 0.04 | 0.00 | 73 | 1014.7 |
| 20260901165203 | 87 | 334 | 2.0 | 4.0 | 0.00 | 0.04 | 0.00 | 73 | 1014.7 |
| 20260901165104 | 87 | 334 | 3.0 | 4.0 | 0.00 | 0.04 | 0.00 | 73 | 1014.7 |
| 20260901165005 | 87 | 334 | 3.0 | 4.0 | 0.00 | 0.04 | 0.00 | 73 | 1014.8 |
| 20260901164904 | 87 | 334 | 3.0 | 4.0 | 0.00 | 0.04 | 0.00 | 73 | 1014.8 |
| 20260901164804 | 87 | 62 | 2.0 | 4.0 | 0.00 | 0.04 | 0.00 | 73 | 1014.7 |
| 20260901164703 | 87 | 68 | 2.0 | 4.0 | 0.00 | 0.04 | 0.00 | 73 | 1014.8 |
| 20260901164604 | 87 | 76 | 1.0 | 3.0 | 0.00 | 0.04 | 0.00 | 73 | 1014.8 |
| 20260901164505 | 87 | 76 | 0.0 | 3.0 | 0.00 | 0.04 | 0.00 | 73 | 1014.7 |
| 20260901164404 | 87 | 65 | 0.0 | 3.0 | 0.00 | 0.04 | 0.00 | 73 | 1014.8 |
| 20260901164305 | 87 | 65 | 1.0 | 3.0 | 0.00 | 0.04 | 0.00 | 73 | 1014.8 |
| 20260901164203 | 87 | 65 | 2.0 | 3.0 | 0.00 | 0.04 | 0.00 | 73 | 1014.8 |
| 20260901164104 | 87 | 61 | 1.0 | 3.0 | 0.00 | 0.04 | 0.00 | 73 | 1014.8 |
| 20260901164004 | 87 | 61 | 1.0 | 3.0 | 0.00 | 0.04 | 0.00 | 73 | 1014.8 |
| 20260901163905 | 87 | 61 | 1.0 | 3.0 | 0.00 | 0.04 | 0.00 | 73 | 1014.8 |
| 20260901163803 | 87 | 62 | 1.0 | 3.0 | 0.00 | 0.04 | 0.00 | 73 | 1014.8 |
| 20260901163703 | 87 | 0 | 2.0 | 3.0 | 0.00 | 0.04 | 0.00 | 74 | 1014.8 |
| 20260901163603 | 87 | 0 | 2.0 | 3.0 | 0.00 | 0.04 | 0.00 | 74 | 1014.8 |
| 20260901163504 | 87 | 0 | 2.0 | 3.0 | 0.00 | 0.04 | 0.00 | 74 | 1014.8 |
| 20260901163403 | 87 | 0 | 2.0 | 4.0 | 0.00 | 0.04 | 0.00 | 74 | 1014.8 |
| 20260901163303 | 87 | 0 | 2.0 | 4.0 | 0.00 | 0.04 | 0.00 | 74 | 1014.8 |
| 20260901163203 | 87 | 24 | 1.0 | 4.0 | 0.00 | 0.04 | 0.00 | 73 | 1014.8 |
| 20260901163103 | 87 | 24 | 1.0 | 4.0 | 0.00 | 0.04 | 0.00 | 73 | 1014.8 |
| 20260901163004 | 87 | 24 | 1.0 | 4.0 | 0.00 | 0.04 | 0.00 | 73 | 1014.7 |
| 20260901162903 | 87 | 24 | 1.0 | 4.0 | 0.00 | 0.04 | 0.00 | 73 | 1014.8 |
| 20260901162802 | 87 | 24 | 1.0 | 4.0 | 0.00 | 0.04 | 0.00 | 73 | 1014.8 |
| 20260901162703 | 87 | 23 | 1.0 | 4.0 | 0.00 | 0.04 | 0.00 | 73 | 1014.8 |
| 20260901162603 | 87 | 23 | 2.0 | 5.0 | 0.00 | 0.04 | 0.00 | 73 | 1014.8 |
| 20260901162504 | 87 | 20 | 2.0 | 5.0 | 0.00 | 0.04 | 0.00 | 73 | 1014.8 |
| 20260901162403 | 87 | 41 | 0.0 | 5.0 | 0.00 | 0.04 | 0.00 | 74 | 1014.8 |
| 20260901162306 | 86 | 41 | 0.0 | 5.0 | 0.00 | 0.04 | 0.00 | 74 | 1014.8 |
| 20260901162203 | 86 | 41 | 0.0 | 5.0 | 0.00 | 0.04 | 0.00 | 74 | 1014.8 |
| 20260901162104 | 86 | 42 | 2.0 | 5.0 | 0.00 | 0.04 | 0.00 | 74 | 1014.8 |
| 20260901162004 | 86 | 42 | 2.0 | 5.0 | 0.00 | 0.04 | 0.00 | 74 | 1014.8 |